GFSSGP_850_temp_120.txt.gz
Temp
14 15 16 17 14 11 14 16 13 16 15 15 15 16 13 12 14 15 14 14 15 16 16 16 16 16 16 16 16 16 16 16 16 16 16 16 16 16 16 16 16 16 16 15 15 15 16 16 16
14 15 16 16 11 13 13 14 15 15 15 16 16 15 14 13 13 13 14 14 15 16 16 16 16 16 16 16 16 16 16 16 16 16 16 16 16 16 16 16 16 16 16 16 15 15 15 15 15
15 16 16 9 9 13 13 14 15 15 15 16 15 14 14 13 14 14 14 15 15 15 15 16 16 15 16 16 16 16 16 16 16 16 16 16 16 16 15 15 15 16 16 16 16 15 15 15 15
15 16 14 11 14 13 14 14 15 15 16 16 15 12 13 13 14 14 14 15 14 14 14 15 16 16 16 16 15 15 16 16 16 16 16 16 16 16 16 16 15 16 16 16 15 15 15 15 15
15 15 10 11 13 13 13 13 14 14 15 14 15 12 13 13 13 14 14 15 15 14 14 15 16 16 16 16 16 15 15 15 15 16 16 16 16 16 16 16 16 16 16 16 15 15 15 15 15
14 13 10 11 12 13 13 13 14 13 14 15 14 13 13 13 13 14 14 15 15 15 15 14 15 16 16 16 15 15 15 15 15 15 15 15 16 16 16 16 16 16 16 16 15 15 15 15 15
11 9 10 9 11 13 13 13 13 13 13 14 14 11 13 13 13 14 14 14 14 15 15 15 15 15 15 15 14 14 14 14 14 15 15 14 15 15 15 15 15 15 16 16 15 15 15 15 15
14 8 10 11 11 13 13 13 13 14 13 14 14 11 12 13 13 13 14 14 14 14 15 15 15 15 15 14 14 15 14 14 14 14 14 14 14 14 15 15 15 15 15 15 15 15 15 15 15
13 8 9 10 11 12 12 12 13 13 14 14 13 13 13 13 13 13 13 13 14 14 14 14 14 14 15 15 15 14 14 14 14 14 14 14 14 14 14 14 14 14 15 15 15 15 15 15 14
10 8 10 10 10 10 12 13 13 13 13 12 13 13 13 13 13 13 13 13 13 13 13 13 12 13 13 14 14 14 15 14 14 14 14 14 14 14 14 14 14 14 14 15 15 15 15 14 14
10 10 9 10 11 12 12 11 12 12 12 12 13 13 12 12 12 12 12 12 12 12 11 12 12 12 12 13 13 14 14 14 14 14 14 13 14 14 14 13 14 14 14 14 14 14 15 14 14
9 10 10 10 11 12 11 12 11 12 12 13 13 12 12 12 12 12 11 11 11 11 11 11 11 12 12 12 12 13 13 14 14 14 14 13 14 13 13 13 13 13 13 14 14 14 14 14 14
9 9 10 10 11 10 11 10 10 11 12 13 12 12 12 12 12 11 11 11 10 11 11 11 11 12 12 12 12 12 12 13 13 13 13 13 13 13 13 13 13 13 13 13 13 13 13 13 14
9 9 9 10 10 10 10 9 10 12 12 12 12 12 12 11 11 11 10 10 10 11 11 11 11 11 11 12 12 12 12 12 12 12 12 12 12 12 12 12 13 13 13 13 13 13 13 13 13
9 8 8 8 9 8 9 10 9 11 12 11 11 11 11 11 10 10 10 10 10 10 10 11 11 11 11 11 11 12 12 12 12 12 12 11 11 11 12 12 12 12 13 12 13 13 13 13 13
7 6 9 8 9 9 10 11 10 11 11 11 11 11 10 10 10 10 9 9 9 10 10 10 10 10 10 10 11 11 11 11 11 11 11 10 10 10 10 10 11 11 11 12 12 12 12 12 12
5 5 9 9 9 8 9 11 10 10 11 10 10 10 10 9 9 9 9 9 9 9 9 9 9 9 9 9 10 10 10 10 10 9 8 9 9 9 9 9 10 10 11 12 11 12 11 12 12
7 5 8 9 9 8 8 7 7 10 10 11 10 9 9 9 9 9 9 9 9 9 8 8 8 8 8 8 9 9 9 9 8 7 8 8 8 8 8 9 9 10 10 10 10 12 11 11 11
5 7 7 8 8 8 7 6 6 9 8 9 10 9 9 8 8 8 8 8 8 8 7 7 7 7 7 7 8 8 8 6 5 6 7 7 7 8 8 8 7 7 8 8 9 10 10 10 11
6 7 6 8 8 8 6 6 7 7 7 9 10 10 10 8 8 7 7 7 7 7 6 6 6 6 6 6 7 7 6 5 5 6 5 6 6 7 7 7 8 7 8 8 8 9 9 9 9
6 6 7 6 7 7 5 7 9 8 8 8 8 9 9 8 7 7 6 6 6 5 6 6 5 6 6 7 6 6 6 6 7 7 7 6 7 7 8 7 8 8 8 7 7 8 8 8 8
7 7 7 7 5 5 5 6 7 8 7 7 7 7 8 7 7 6 6 6 5 5 5 5 5 5 6 6 7 6 7 7 6 6 6 6 6 6 6 6 6 6 7 6 6 7 7 7 7
7 8 7 7 5 4 6 3 6 7 7 6 6 7 7 7 6 6 6 5 5 5 5 5 5 5 5 6 6 6 6 6 6 6 6 6 6 6 6 7 6 6 7 6 7 7 7 6 6
7 6 4 3 3 3 6 4 7 7 8 9 7 8 8 7 6 6 5 5 4 5 5 5 5 5 5 5 5 5 6 6 5 5 5 5 5 5 5 5 5 5 5 6 7 6 6 6 6
5 3 1 4 3 5 4 5 6 8 7 8 8 8 8 7 7 6 5 4 4 5 5 4 5 5 5 5 5 6 6 5 5 6 5 5 5 5 5 5 5 5 5 5 5 5 5 6 6
6 5 2 6 4 4 4 5 7 7 7 7 8 8 8 7 6 6 5 5 5 5 5 5 5 5 5 5 5 5 5 5 5 5 5 5 5 5 4 4 4 4 4 4 4 4 4 5 4
6 4 5 2 3 5 2 4 6 6 5 6 6 6 7 7 6 6 5 5 5 5 5 5 5 5 5 5 5 5 5 5 5 5 5 5 5 5 4 4 3 3 2 2 2 2 2 2 2
7 6 5 2 5 6 3 4 5 6 7 6 4 6 8 7 6 6 5 5 5 5 5 5 5 6 6 5 5 5 4 5 4 4 4 4 4 4 4 4 4 3 3 2 2 1 1 1 1
6 6 5 4 3 4 5 7 5 7 8 8 7 9 9 9 8 8 7 7 5 5 5 5 5 5 6 6 5 5 5 4 4 4 4 4 4 4 4 4 4 3 3 3 2 2 2 1 1
6 6 5 4 5 4 4 6 7 6 7 7 8 9 10 10 9 9 8 7 6 6 6 6 6 6 6 5 5 5 4 4 4 3 3 3 3 3 3 2 2 2 1 1 1 1 0 -0 -0

GFSSGP_850_temp_123.txt.gz
Temp
15 15 16 17 17 15 16 16 14 16 16 14 15 16 16 12 15 17 13 14 15 16 16 16 16 16 16 16 16 16 16 16 16 16 16 16 16 16 16 16 16 16 16 15 15 15 16 16 16
14 15 16 16 16 17 17 15 15 16 14 15 15 14 14 14 13 13 13 14 15 15 16 16 16 15 15 16 16 16 16 16 16 16 16 16 16 16 16 16 16 16 16 15 15 15 15 15 15
15 15 16 13 13 17 17 14 15 14 15 15 14 14 13 13 13 13 14 14 14 14 15 15 15 15 15 16 16 16 16 16 16 16 16 16 16 16 16 16 16 16 16 16 16 15 15 15 15
15 16 14 15 15 14 14 14 14 14 14 15 14 13 13 13 13 14 14 14 13 14 14 15 15 15 16 16 15 16 16 15 15 16 16 16 16 16 16 16 16 16 16 16 16 15 15 15 15
15 15 13 13 13 13 13 13 14 15 14 14 14 12 12 13 14 14 14 14 15 14 14 15 15 16 16 16 16 16 15 15 15 15 15 15 15 15 15 16 16 16 16 16 16 16 15 15 15
14 13 13 13 12 13 13 13 14 13 13 13 13 12 12 13 13 14 14 14 15 15 15 15 15 15 15 15 16 15 15 15 14 15 15 15 15 15 15 15 15 15 15 15 15 15 15 15 15
12 11 12 11 12 13 13 13 13 13 13 13 14 13 12 13 13 13 13 14 14 15 15 15 15 15 15 15 15 14 14 14 14 14 14 15 15 15 15 15 15 15 15 15 15 15 15 15 15
14 10 10 11 12 14 12 13 13 14 13 13 13 13 12 13 13 13 13 13 14 14 14 15 15 15 15 15 14 14 14 14 14 14 14 14 14 14 14 14 14 14 15 15 15 15 15 15 15
14 10 10 11 12 12 12 13 13 13 13 13 13 13 13 13 13 13 13 13 13 13 13 13 14 14 14 15 15 15 14 14 14 14 14 14 14 14 14 14 14 14 14 14 14 14 15 15 15
11 11 11 10 11 11 12 13 13 13 12 12 12 12 13 13 13 13 13 13 13 13 13 13 13 13 13 14 14 14 15 15 15 14 14 14 14 14 14 14 14 14 14 14 14 14 14 14 14
9 11 10 10 11 12 11 11 12 12 12 12 13 12 12 13 13 13 12 12 12 12 11 12 12 12 13 13 13 14 14 14 14 14 14 14 14 13 14 14 14 13 13 14 14 14 14 14 14
10 9 10 10 11 12 11 12 11 12 12 13 13 12 12 12 12 12 11 11 11 11 11 11 12 12 12 12 12 13 13 13 14 14 14 14 14 14 13 13 13 13 13 13 13 13 13 14 14
9 9 9 10 11 10 11 9 10 12 12 12 12 12 12 12 11 11 11 11 11 11 11 11 12 12 12 12 12 12 12 13 13 13 13 13 13 13 13 13 13 13 13 13 13 13 13 13 13
8 8 8 10 9 10 10 9 10 12 12 11 11 11 11 11 11 11 11 10 10 11 11 11 11 12 12 12 12 12 12 12 13 13 13 12 12 12 12 12 13 13 12 12 13 13 13 13 13
9 9 8 8 9 8 9 11 10 11 12 11 11 11 11 10 11 10 10 10 10 10 10 10 11 11 11 11 11 11 11 12 12 12 12 12 11 11 11 11 11 11 12 12 12 12 13 12 13
8 8 10 8 9 8 11 13 10 10 11 10 11 11 10 10 10 10 10 10 10 10 10 10 10 9 9 9 9 10 10 11 11 12 11 10 10 9 9 9 10 10 10 11 11 11 12 12 12
6 7 9 9 8 8 9 11 10 10 10 10 10 10 10 10 10 9 9 9 9 9 9 9 9 8 8 8 9 9 10 10 11 11 10 9 9 9 9 9 9 10 10 10 9 10 11 11 11
8 7 8 9 8 8 8 8 8 10 9 10 10 10 9 9 10 9 9 9 9 9 9 8 8 8 8 8 8 8 9 9 9 9 9 9 8 8 8 8 8 7 7 8 8 8 9 10 10
6 7 7 7 8 8 8 7 8 10 8 9 10 9 9 10 9 9 9 8 8 9 8 8 8 7 7 8 8 8 8 7 8 8 8 7 7 7 7 7 8 8 8 8 9 9 9 9 9
6 7 6 7 8 8 6 7 8 7 8 9 10 11 10 10 9 8 8 8 8 8 8 7 7 7 7 7 7 7 6 6 7 7 7 7 7 7 8 8 8 8 8 9 8 8 9 9 9
5 7 7 7 7 6 5 9 9 8 7 8 8 9 10 10 9 8 8 8 8 7 7 6 6 7 7 7 6 6 6 6 7 7 7 7 7 7 7 7 7 7 7 8 8 7 7 7 7
7 7 7 7 7 8 5 10 9 8 7 7 8 8 9 9 8 8 8 7 7 6 6 6 6 6 6 6 6 7 7 7 7 7 7 6 6 6 6 7 7 7 7 7 7 7 7 7 7
6 7 6 6 5 5 6 6 10 6 9 8 7 8 9 8 8 8 7 7 6 5 5 5 5 6 6 6 6 6 6 6 6 5 5 5 6 6 6 6 6 6 6 6 6 6 6 6 6
5 6 4 4 5 7 5 6 10 9 9 9 7 9 9 8 8 7 7 6 5 5 5 5 5 5 5 6 6 6 6 6 5 5 5 5 6 6 6 6 6 6 6 6 6 6 5 5 5
5 4 4 7 5 8 4 5 10 9 8 8 9 9 9 8 8 7 6 6 5 5 5 5 5 5 5 6 6 6 6 6 6 5 5 5 5 5 5 5 5 6 6 6 6 5 5 5 4
5 5 4 8 7 6 4 6 10 7 6 8 8 9 9 8 7 7 7 6 6 5 5 5 5 5 5 6 6 6 6 6 5 5 4 4 4 4 5 5 5 5 5 5 5 5 5 5 4
6 5 5 3 3 5 5 6 7 6 6 7 7 7 8 8 8 8 7 6 6 5 5 5 5 6 6 6 6 6 6 5 5 4 4 4 4 4 4 4 4 4 4 4 4 3 3 2 2
7 5 6 3 6 8 6 5 7 7 7 7 6 8 9 9 8 8 8 7 6 6 6 6 6 7 7 7 6 6 6 5 4 4 4 4 4 4 4 4 4 3 3 3 3 3 2 2 1
6 5 4 4 5 7 7 10 5 7 8 9 8 9 10 10 10 9 9 8 8 7 7 7 6 7 7 6 6 6 5 5 4 4 4 3 3 3 4 3 3 3 2 2 2 1 1 1 0
6 5 5 6 5 4 5 8 7 6 6 7 9 10 10 10 10 10 10 9 9 8 8 7 7 7 7 6 6 5 5 5 4 4 3 3 3 4 4 3 3 3 2 2 1 1 1 0 -0

GFSSGP_850_temp_126.txt.gz
Temp
16 16 17 17 22 23 23 21 21 21 21 18 19 21 21 18 20 20 13 14 15 16 16 15 16 15 15 16 16 16 16 16 16 16 16 16 16 16 16 16 16 16 16 15 15 15 16 16 16
15 16 16 19 23 24 24 21 21 21 18 17 17 18 19 17 15 14 14 14 15 15 15 15 15 15 15 16 16 16 16 15 16 16 16 16 16 16 16 16 16 16 16 16 16 15 15 15 15
15 16 18 22 23 25 24 21 21 18 17 18 17 16 16 15 14 14 14 14 14 14 15 15 15 15 15 15 16 16 16 16 15 15 15 16 16 16 16 16 16 15 16 16 16 16 15 15 15
15 16 17 22 23 20 21 21 19 18 16 16 18 17 14 12 14 13 14 14 13 14 15 15 15 15 15 15 16 16 16 16 16 15 15 15 15 15 15 16 16 15 15 15 16 16 15 15 15
15 17 20 21 20 19 19 18 19 20 18 18 17 16 15 12 13 14 14 14 14 14 14 15 15 16 16 16 16 16 16 15 15 15 15 15 15 15 15 15 15 15 15 15 15 15 15 15 15
16 18 21 21 20 18 18 17 18 19 18 16 17 17 15 12 12 14 14 14 15 15 15 15 15 15 15 16 15 16 16 15 15 15 15 15 15 15 15 15 15 15 15 15 15 15 15 15 15
18 19 21 21 19 18 18 16 19 19 18 17 16 18 14 12 13 14 14 14 15 15 15 15 15 15 15 15 15 15 15 14 14 14 14 15 15 15 15 15 15 15 15 15 15 15 15 15 15
15 18 18 20 19 19 17 16 15 18 17 14 14 18 16 13 13 13 14 14 14 14 14 14 15 15 15 15 15 15 14 14 14 14 14 14 14 14 14 14 14 15 15 15 15 15 15 14 14
15 18 19 17 19 18 15 17 14 14 15 14 13 14 12 13 13 13 13 13 13 13 13 14 14 14 14 15 15 15 15 15 15 14 14 14 14 14 14 14 14 14 14 14 14 14 14 14 14
16 18 18 17 18 18 16 18 16 16 15 14 13 11 12 13 13 13 13 13 13 13 13 13 13 13 14 14 14 14 15 15 15 15 15 14 14 14 14 14 14 14 14 14 14 14 14 14 14
13 17 14 13 13 16 15 15 14 17 17 16 15 12 12 13 13 13 13 13 12 12 12 12 13 13 13 13 13 13 14 14 14 14 14 14 14 14 14 14 13 14 14 14 14 13 13 13 13
14 11 13 12 11 14 15 14 14 15 14 14 14 13 12 12 12 12 12 12 12 11 12 12 12 12 13 13 13 13 13 13 13 14 14 14 14 14 14 14 13 12 13 13 14 14 14 13 13
13 11 11 10 11 11 12 13 14 13 11 12 12 12 11 11 12 12 12 11 11 11 11 12 12 12 12 12 12 12 12 13 13 13 13 13 13 13 13 13 12 12 11 11 12 13 13 13 13
11 11 11 11 11 10 14 12 12 12 11 11 11 11 11 11 11 11 11 11 11 11 11 11 11 12 12 11 11 11 11 12 12 12 12 12 12 12 12 12 10 10 10 10 10 10 11 12 13
12 12 13 11 11 11 11 14 14 12 11 11 11 10 10 10 11 9 11 11 11 11 11 11 11 12 11 11 10 10 11 11 11 12 12 11 11 11 11 11 10 9 9 9 9 9 10 11 11
13 15 15 12 11 10 12 18 14 11 11 12 11 10 9 10 10 11 10 10 10 11 10 11 11 11 10 9 9 9 10 10 11 11 11 11 10 10 9 10 10 10 8 8 8 8 9 10 9
13 13 14 12 11 12 13 18 13 11 12 13 12 11 10 9 9 10 10 10 10 10 10 10 10 10 9 9 9 9 9 9 9 10 10 9 9 9 9 8 8 8 8 8 8 8 8 8 10
14 13 13 14 11 12 13 15 14 12 12 13 13 12 11 10 9 10 10 10 10 9 9 10 9 9 8 8 8 8 6 8 9 9 9 9 8 8 8 8 8 8 9 9 9 9 8 9 9
13 15 13 11 10 12 13 13 15 14 11 13 14 13 12 10 9 10 10 9 9 9 9 9 8 8 8 8 8 7 8 8 8 8 8 8 8 8 8 8 8 8 8 8 8 8 8 8 9
14 15 12 10 10 12 12 14 16 15 14 13 14 13 12 11 8 10 9 9 9 9 8 8 8 8 7 7 7 7 7 7 7 7 7 7 7 8 8 8 8 8 8 8 8 8 8 8 8
12 14 12 11 10 10 12 17 16 14 12 11 11 11 11 11 10 8 9 9 9 8 8 8 7 7 7 7 7 7 7 6 6 6 7 7 7 7 7 7 7 7 7 8 8 7 8 8 7
13 10 11 11 14 15 11 16 17 15 14 12 12 10 10 9 8 8 8 9 8 8 8 7 7 7 7 7 7 7 6 6 6 6 6 6 6 7 6 7 6 6 6 7 7 7 7 7 6
10 10 10 11 12 12 12 13 19 13 16 16 14 12 10 8 8 7 8 8 8 8 7 6 6 6 6 7 7 6 6 6 6 6 6 6 6 6 6 6 6 6 6 6 7 7 6 6 6
9 10 10 11 12 13 10 12 18 17 15 14 12 12 9 8 8 8 8 8 8 7 6 6 6 6 6 6 6 6 6 6 6 6 6 6 6 5 5 6 6 6 6 6 6 6 5 5 5
10 11 11 12 12 14 9 11 18 15 13 13 12 11 10 8 8 8 8 8 7 7 7 6 6 6 6 6 7 7 6 6 6 5 5 5 5 5 5 6 6 5 5 5 5 5 5 5 5
9 10 12 13 14 14 8 12 17 12 10 10 9 9 9 9 8 8 8 8 8 7 6 6 6 6 6 6 6 6 6 6 5 5 5 5 5 5 5 5 5 5 5 4 4 4 4 4 4
9 10 9 9 8 11 14 13 14 12 11 11 10 9 9 9 10 10 10 9 8 7 7 6 6 6 7 6 6 6 5 5 5 5 5 4 4 4 4 5 5 5 5 5 4 4 3 3 2
10 9 11 10 12 14 15 13 14 12 11 12 11 11 10 9 10 10 10 9 9 8 7 7 7 7 7 6 6 6 5 5 5 5 5 5 5 4 4 4 4 4 4 4 3 3 3 2 2
9 10 9 10 10 13 15 17 14 12 11 12 12 10 10 11 11 10 10 10 9 9 8 7 7 7 7 6 6 6 6 6 6 6 5 4 4 4 3 3 3 3 3 3 3 2 2 2 1
9 10 11 13 11 10 11 16 12 12 11 10 11 10 10 11 11 11 11 11 10 9 9 8 8 7 7 6 6 6 6 5 5 5 5 4 4 4 3 3 3 3 2 2 2 1 1 1 0

GFSSGP_850_temp_129.txt.gz
Temp
17 17 16 18 22 24 26 25 27 24 24 22 23 24 23 20 22 20 14 14 15 15 14 15 16 16 15 16 16 16 16 16 16 16 16 16 16 16 16 16 16 16 16 15 15 15 16 16 16
14 15 16 21 22 25 27 25 24 25 22 21 21 22 22 19 17 16 16 14 15 14 14 16 15 15 15 15 16 16 16 16 16 15 16 16 16 16 16 16 15 15 16 16 15 15 15 15 15
13 15 20 22 24 26 26 25 25 22 21 22 20 20 20 17 16 16 14 14 14 15 15 15 15 15 15 15 15 16 16 16 16 16 16 16 15 15 15 15 16 15 15 16 16 16 16 15 15
14 16 19 22 25 23 25 25 23 21 20 20 21 19 16 14 16 15 14 14 14 14 15 15 15 15 15 16 15 16 16 16 16 15 15 15 15 15 15 15 15 15 15 15 15 16 15 15 15
15 20 22 23 25 22 25 24 22 22 21 20 21 19 16 14 14 13 13 14 13 14 15 15 15 15 16 16 16 16 16 16 16 15 15 15 15 15 15 15 15 15 15 15 15 15 15 15 15
18 20 23 23 24 22 22 22 22 23 21 20 21 19 16 14 13 14 13 15 15 15 15 15 15 15 15 15 15 15 15 15 15 15 15 15 15 15 15 15 15 15 15 15 15 15 15 15 15
18 20 23 25 23 21 21 21 22 22 21 21 20 21 15 14 12 14 14 14 15 15 15 15 16 16 16 16 15 15 15 15 15 15 14 14 14 14 15 15 14 15 15 15 15 15 15 15 15
17 20 22 25 22 22 21 20 22 22 21 17 18 20 17 14 13 14 14 14 14 15 15 15 15 15 15 15 16 16 16 15 15 15 15 14 14 14 14 14 14 14 14 14 14 15 15 15 15
15 19 21 23 23 21 19 19 19 17 18 18 17 18 17 13 14 13 14 13 13 14 14 15 15 15 15 15 15 15 15 15 15 15 15 14 13 13 13 13 14 14 14 14 14 14 14 14 15
17 20 22 22 22 21 19 20 18 19 18 17 15 14 13 12 13 12 12 12 12 13 14 14 14 14 14 14 14 14 14 14 14 14 15 14 13 14 14 14 14 14 14 14 14 14 14 14 14
17 19 18 17 17 20 20 20 19 20 19 18 17 14 14 13 13 13 12 12 13 13 13 13 13 13 13 13 13 13 13 14 14 14 14 14 14 13 14 13 13 13 13 13 12 13 13 13 14
15 15 17 14 15 18 18 18 18 20 17 18 17 15 14 14 13 12 11 11 12 13 13 12 12 13 13 13 13 13 12 13 12 12 13 14 13 13 13 12 12 12 12 13 12 12 12 13 13
16 14 13 13 14 16 15 17 18 16 14 16 15 14 14 14 13 11 11 11 12 11 12 12 12 12 13 13 13 12 11 10 11 12 13 13 12 12 11 10 10 11 11 11 12 12 12 12 12
15 14 13 14 14 13 16 15 15 15 14 13 13 14 13 13 12 11 10 10 11 12 12 12 12 12 12 12 12 11 11 11 11 12 12 12 12 11 10 10 9 10 10 10 10 11 11 11 11
13 14 14 14 14 14 15 15 16 15 13 13 13 13 13 12 11 11 10 11 11 11 11 11 11 12 12 11 11 9 9 9 10 10 11 11 11 11 11 11 10 9 9 9 10 10 10 10 10
16 16 15 14 14 12 14 19 18 14 14 14 14 13 12 11 11 10 11 11 11 11 11 11 11 11 11 11 10 8 7 10 10 7 9 10 10 9 9 9 8 8 8 8 8 9 9 9 9
16 15 17 13 13 14 15 19 16 14 14 15 15 14 12 12 11 10 9 10 10 11 11 11 11 11 10 10 9 8 6 9 8 6 7 8 8 9 8 9 9 9 7 7 7 8 8 8 9
16 16 17 15 14 14 15 17 16 14 14 16 16 15 14 13 11 10 9 10 11 11 10 10 10 10 10 9 8 6 6 8 7 6 8 8 8 8 8 9 9 9 9 8 8 8 7 8 8
18 17 17 14 12 14 16 17 18 17 15 15 17 17 16 14 12 10 9 9 10 10 10 9 9 9 9 8 7 6 8 8 7 7 8 8 8 8 8 8 8 8 9 8 8 8 7 7 8
17 18 16 13 13 14 16 16 18 18 17 16 16 17 17 15 13 10 8 8 9 8 9 9 9 8 8 8 8 8 8 8 7 7 7 7 8 8 8 8 8 8 8 8 8 8 8 8 6
17 18 15 13 13 14 15 18 19 19 19 18 17 16 16 15 14 12 9 8 7 7 9 9 9 8 8 8 7 7 7 7 6 7 7 7 7 7 7 7 7 8 7 7 7 7 7 6 5
14 14 15 14 16 17 15 17 20 20 17 16 15 14 14 13 13 12 10 8 7 7 9 9 8 8 7 7 7 6 6 5 6 6 6 6 7 7 7 7 7 7 7 7 7 6 6 6 5
12 14 14 15 16 16 16 15 21 17 18 19 17 15 14 13 11 11 10 8 7 8 9 9 8 7 7 7 7 7 6 6 6 6 6 6 6 6 7 7 7 7 7 6 6 6 6 6 5
12 14 14 15 15 15 15 16 20 20 18 16 15 15 13 11 10 9 9 8 8 9 9 8 8 7 7 7 6 6 6 6 5 5 5 6 6 6 7 7 6 6 6 6 6 6 6 5 5
13 14 11 13 12 15 12 14 20 18 16 15 14 14 12 11 10 9 8 9 9 8 8 8 7 7 7 7 7 7 6 6 6 6 6 6 6 6 6 6 6 6 6 6 5 5 5 4 4
13 13 13 13 15 16 11 14 18 15 13 13 13 12 11 11 10 9 9 8 7 8 8 7 7 7 7 7 6 7 6 6 6 6 6 6 6 6 6 5 5 5 5 5 5 4 4 4 4
12 13 12 13 13 15 17 16 17 15 15 13 13 11 12 11 10 9 9 9 9 8 8 8 8 8 7 7 6 6 7 7 7 6 6 6 6 6 6 6 5 5 5 5 4 4 4 3 3
12 12 13 12 13 15 16 16 17 13 13 14 14 13 13 11 10 10 9 9 10 10 10 9 9 8 8 7 7 7 7 7 7 6 6 6 5 6 5 5 5 5 5 5 4 4 3 3 2
11 12 12 14 14 15 18 17 16 14 14 14 14 13 12 11 11 11 11 11 11 10 10 9 8 8 8 7 7 7 7 7 6 6 6 6 5 5 5 5 5 5 4 4 4 3 3 2 1
12 13 15 15 14 14 14 16 15 14 13 13 13 13 13 12 12 11 11 10 9 10 10 9 9 7 7 7 7 7 7 7 6 6 6 6 5 5 5 5 4 4 4 4 3 3 2 2 1

GFSSGP_850_temp_135.txt.gz
Temp
18 17 17 18 15 14 16 21 21 22 20 20 21 18 15 16 16 16 14 14 15 15 15 16 16 16 16 16 16 16 16 16 16 16 16 16 16 16 16 16 16 16 16 16 16 15 15 15 16
17 17 17 18 14 15 16 20 19 19 21 20 20 19 17 15 14 14 15 15 14 15 15 16 16 16 16 16 16 16 16 16 16 15 16 15 15 16 16 16 16 16 16 16 16 16 16 15 15
17 16 16 14 14 16 17 20 17 19 21 21 19 18 17 15 14 14 14 14 15 15 15 16 16 15 15 15 15 15 16 16 16 15 15 15 15 15 16 16 15 15 15 16 16 16 16 16 16
15 16 16 15 16 19 21 17 19 19 20 21 18 14 15 15 15 14 14 14 15 15 15 15 15 16 15 15 15 15 15 15 15 15 15 15 15 15 15 15 15 15 15 15 16 16 16 16 16
15 16 15 16 18 20 17 19 20 18 20 19 19 14 13 14 14 14 14 14 15 15 15 15 15 15 15 15 15 15 15 15 15 15 15 15 15 15 15 15 15 15 15 15 15 15 15 15 15
14 15 13 16 19 20 19 20 20 19 18 18 16 14 14 13 14 14 14 15 15 15 16 16 16 16 16 16 15 15 15 15 15 15 15 15 14 14 14 14 14 14 15 15 15 15 15 15 15
13 12 13 15 17 19 19 21 19 18 19 18 18 13 13 13 14 14 14 15 15 16 16 16 16 16 16 16 16 16 16 16 15 15 15 15 14 14 14 14 14 14 14 14 14 14 14 15 15
15 12 17 17 16 18 20 21 20 20 17 18 17 12 12 13 14 14 14 15 15 15 16 16 16 16 16 16 16 16 16 16 16 16 16 15 15 14 14 14 14 14 14 14 14 14 14 14 14
15 12 14 18 16 17 20 18 18 18 18 16 17 16 17 14 14 14 14 14 15 15 16 16 15 15 15 15 15 15 15 15 15 15 15 15 15 14 14 13 13 13 13 13 13 13 13 13 13
13 12 16 15 16 16 18 18 18 17 16 14 15 15 15 14 14 14 14 14 15 15 15 15 15 15 15 15 15 15 15 14 14 14 15 15 14 14 14 14 13 13 13 12 12 12 12 12 13
14 13 13 15 16 19 18 17 18 16 16 15 13 14 14 14 14 13 13 14 14 15 14 14 15 15 14 15 14 14 14 14 13 14 14 14 14 14 14 13 13 13 12 12 12 12 12 12 12
14 13 14 14 16 18 17 18 16 16 17 18 16 15 14 14 13 13 13 13 14 14 14 14 14 14 14 14 14 14 13 13 13 13 13 13 13 13 13 13 13 12 12 12 12 12 12 12 12
13 13 14 14 16 16 18 15 15 15 17 17 15 14 14 13 13 12 13 12 13 13 13 13 14 13 13 13 13 13 12 12 12 11 12 12 12 13 12 12 11 11 11 11 11 11 11 11 11
13 13 13 14 14 14 14 14 16 14 15 15 15 14 14 13 13 12 12 12 13 13 13 13 13 13 13 13 13 12 12 11 11 10 11 11 11 11 11 11 12 11 11 11 10 10 10 10 10
13 11 12 12 14 13 15 14 14 15 15 14 14 14 14 13 13 13 12 13 13 13 13 13 12 12 12 12 12 12 11 9 9 10 10 10 10 11 11 11 10 10 10 10 10 10 10 10 9
12 10 10 12 13 13 14 14 13 14 15 14 14 14 14 13 13 12 12 12 12 13 13 12 12 12 12 12 11 11 10 9 9 9 8 9 10 10 10 9 9 9 9 10 9 10 10 10 10
11 7 10 11 13 12 13 13 12 14 14 13 13 14 13 13 12 12 12 12 12 12 12 12 11 11 11 11 10 10 9 8 8 9 8 9 8 9 9 9 9 9 9 9 9 9 9 9 10
9 9 10 9 11 12 12 13 12 13 14 14 14 14 13 13 13 13 12 12 12 12 11 11 11 11 11 10 9 9 8 8 8 9 8 8 8 8 9 9 9 9 9 9 9 9 9 9 10
12 11 9 11 12 13 11 13 12 13 14 13 14 14 14 14 14 13 12 12 12 11 11 11 10 10 10 10 9 8 8 8 8 8 7 8 8 8 8 8 8 8 9 8 8 8 9 10 10
13 10 10 11 12 13 12 12 13 12 13 14 15 15 15 14 14 13 12 12 12 11 11 11 10 10 10 9 9 8 8 8 7 7 7 7 7 8 8 8 8 8 8 8 8 9 9 9 10
12 10 9 10 12 13 13 12 13 13 14 15 15 16 16 16 14 13 13 13 12 11 11 10 10 10 10 9 8 8 7 7 7 7 7 7 7 7 8 8 8 8 8 8 8 9 9 9 9
12 12 11 10 9 8 12 9 13 13 13 13 14 15 16 15 15 14 13 12 12 11 10 10 10 9 9 8 8 7 7 7 7 7 7 7 7 8 8 8 8 8 8 8 8 9 9 8 8
12 12 11 11 12 9 12 7 11 13 15 14 13 15 15 15 14 13 12 12 11 11 10 10 10 9 9 8 8 7 7 7 7 7 8 8 8 8 8 8 8 8 8 8 8 8 8 8 8
11 11 10 9 8 7 12 9 10 12 13 13 13 14 14 14 13 13 12 11 11 11 11 10 10 10 9 8 7 7 7 8 8 8 8 8 8 8 8 8 7 7 7 8 8 8 8 7 7
11 7 3 6 4 6 9 9 10 12 12 11 10 12 12 12 12 12 11 11 11 11 11 10 10 10 9 9 8 8 8 8 8 8 8 8 8 8 7 7 7 7 7 7 7 7 7 7 6
10 8 5 8 6 6 8 9 11 11 12 12 12 12 12 11 11 11 11 11 11 11 11 11 10 10 9 9 8 8 8 8 8 8 8 8 7 7 7 7 7 6 6 6 7 6 6 6 6
11 7 10 8 9 6 6 10 11 11 10 11 11 12 12 12 12 12 12 12 12 12 11 11 10 10 10 9 8 8 8 8 8 8 8 8 7 7 7 7 7 6 6 6 6 6 6 5 5
10 10 8 5 8 11 7 12 6 10 10 10 10 11 12 12 12 12 12 12 12 11 11 11 10 10 10 9 8 8 8 7 8 8 8 8 7 7 7 7 6 6 6 6 6 6 6 5 5
9 9 10 8 7 7 9 9 11 9 9 9 11 12 12 12 12 12 11 11 11 11 11 11 10 10 10 9 8 8 8 7 7 8 8 8 7 7 7 7 6 6 6 6 6 5 5 5 5
9 10 9 7 10 8 8 9 10 9 10 12 12 13 13 12 12 12 11 11 11 11 10 10 10 10 9 9 8 8 8 7 7 7 7 7 7 6 7 6 6 6 6 5 5 5 5 5 5

GFSSGP_850_temp_138.txt.gz
Temp
17 17 17 18 15 12 15 18 21 19 18 17 18 17 14 13 15 16 14 15 15 15 15 16 16 16 16 16 16 16 16 16 16 16 16 16 16 16 16 16 16 16 16 16 16 16 16 15 15
17 16 17 17 13 14 15 18 19 19 18 18 18 17 15 13 14 13 14 14 15 15 15 15 15 15 16 16 16 16 16 16 16 16 15 15 15 16 16 16 16 16 15 16 16 16 16 16 16
15 16 17 12 12 15 17 18 17 18 19 19 17 16 15 14 14 14 14 14 14 15 15 15 15 15 15 16 16 16 15 15 15 15 15 15 15 15 15 15 15 15 15 15 15 15 15 16 16
15 16 16 13 15 17 18 17 17 17 19 19 17 13 14 14 14 14 14 14 15 15 15 15 15 15 15 15 15 15 15 15 15 15 15 15 15 15 15 15 15 15 15 15 15 15 15 15 15
15 15 12 14 16 18 17 18 18 17 17 17 17 12 13 13 14 14 14 14 15 15 15 15 15 15 15 15 15 15 15 15 15 15 15 15 15 14 14 14 15 14 15 15 15 15 15 15 15
14 14 12 13 17 18 18 19 19 17 17 16 14 13 13 13 13 13 14 15 15 15 15 15 15 16 16 16 15 15 15 15 15 15 15 14 15 15 14 15 14 14 14 14 14 14 14 14 14
12 10 12 14 16 18 18 19 17 17 17 16 16 11 12 13 14 14 14 14 15 16 16 16 16 16 16 16 16 16 16 16 16 15 15 15 15 14 14 14 14 14 14 14 14 14 14 14 14
14 11 14 14 15 18 18 18 18 18 15 16 17 11 11 13 14 14 14 15 15 15 15 16 16 16 16 16 16 16 15 15 15 15 15 15 15 14 14 14 14 14 14 14 13 13 13 13 13
14 11 12 14 15 17 18 17 17 17 17 16 16 16 16 14 14 14 14 15 15 15 15 16 16 15 15 15 15 15 15 15 15 15 15 15 15 14 14 13 13 13 13 13 13 13 13 13 13
12 10 14 15 15 16 17 17 17 16 14 13 15 16 14 14 14 14 14 15 14 15 15 15 15 15 15 15 15 15 15 15 15 15 14 14 14 14 14 14 13 13 13 13 13 12 12 12 12
13 12 14 14 14 17 16 16 17 15 15 15 15 14 14 14 13 14 14 14 14 15 15 15 14 14 14 14 14 14 14 14 14 14 14 14 13 13 13 13 13 12 12 12 12 12 12 12 12
12 13 13 13 15 17 16 17 15 16 16 18 17 16 14 14 13 14 14 14 15 15 15 14 14 14 14 14 14 14 14 13 12 12 13 13 13 12 13 13 12 12 12 12 12 11 12 12 12
12 13 13 14 15 14 17 14 14 14 17 17 15 14 14 14 13 13 13 14 14 14 14 14 14 13 13 13 13 13 12 12 12 12 12 12 12 12 12 12 12 12 12 12 12 12 11 11 11
12 12 13 14 14 14 13 14 15 13 15 15 15 14 14 13 13 13 13 14 14 14 14 13 13 13 13 13 13 12 11 11 11 11 11 11 12 11 11 11 11 11 11 11 11 11 11 11 11
12 11 11 12 13 13 14 15 12 13 14 14 14 13 13 13 13 14 14 14 13 13 13 13 13 12 12 12 12 12 10 10 10 10 11 10 11 11 11 11 11 11 11 10 10 11 11 11 11
10 10 11 11 13 13 14 14 12 14 14 13 13 13 13 13 13 13 13 13 13 12 12 12 12 12 11 11 11 11 9 8 9 9 10 10 10 10 10 10 10 10 10 10 10 11 11 11 10
8 6 9 11 12 12 13 13 12 13 14 13 13 13 13 13 13 13 13 13 12 12 12 12 12 11 11 11 11 10 9 8 9 9 9 9 9 9 9 9 9 9 9 9 10 10 10 10 10
8 8 9 9 11 12 13 13 11 13 13 13 13 13 13 13 14 14 13 12 12 12 12 12 11 11 10 10 10 9 9 8 9 9 9 9 9 9 9 9 9 9 9 9 9 9 9 9 10
10 10 10 10 11 12 11 12 11 12 12 12 13 13 13 14 15 13 13 13 13 12 12 12 11 11 10 9 9 9 8 8 8 9 9 8 9 9 8 8 8 9 9 9 9 9 9 10 10
10 9 9 10 11 12 11 12 12 11 11 13 14 14 14 14 14 13 13 13 13 12 11 11 11 10 10 10 9 9 8 8 8 8 8 8 8 8 8 8 8 9 9 9 9 9 9 10 10
11 10 8 9 11 12 12 11 12 12 13 14 14 14 15 15 15 14 13 13 12 12 11 11 10 10 10 9 9 8 8 8 8 8 8 8 8 8 8 8 8 8 9 9 9 9 9 9 9
11 11 10 9 8 8 12 9 12 12 11 11 13 14 14 15 15 15 13 13 13 12 11 11 10 10 10 9 9 8 8 8 8 8 8 8 8 8 8 8 8 8 8 8 8 8 8 8 8
11 10 10 11 9 8 11 7 11 11 14 13 12 14 14 14 15 15 14 13 12 11 11 10 10 10 9 9 9 8 8 8 8 7 7 7 8 8 8 8 7 8 8 8 8 7 7 8 8
10 10 8 7 7 7 11 9 10 12 13 12 11 12 13 13 13 13 12 12 11 11 11 11 10 10 9 9 9 8 8 8 7 8 8 8 8 8 8 7 7 7 7 8 7 7 7 7 7
9 7 3 6 4 7 7 9 10 12 11 11 9 11 12 12 12 12 12 12 11 11 11 10 10 10 10 9 9 8 8 7 7 7 7 8 8 8 8 7 7 7 7 7 7 7 7 7 6
9 8 4 8 6 6 7 9 11 11 10 11 11 12 12 12 12 12 11 11 11 11 11 11 10 10 10 10 9 8 8 7 8 8 8 7 7 7 7 7 7 7 7 7 7 6 6 6 6
10 7 8 6 6 6 5 9 10 10 9 10 11 11 11 11 11 11 12 12 11 11 11 11 11 11 10 10 9 9 8 8 8 7 7 8 8 7 7 7 7 7 6 6 6 6 6 6 6
10 9 8 4 8 11 6 10 6 9 9 9 9 11 11 12 12 11 11 11 11 11 11 10 10 10 9 9 9 9 8 8 8 7 8 8 7 7 7 7 7 6 6 6 6 6 5 5 5
8 8 8 7 6 7 9 9 7 8 8 8 9 11 12 11 11 11 11 11 11 11 11 10 10 9 9 9 9 8 8 8 8 8 8 7 7 7 7 7 6 6 6 5 5 5 5 5 5
9 10 8 7 10 7 7 9 9 8 9 10 11 12 12 11 11 11 11 11 10 10 10 10 10 9 9 8 8 8 7 7 7 7 7 7 6 6 6 6 6 6 5 5 5 5 5 5 4

GFSSGP_850_temp_144.txt.gz
Temp
17 17 17 18 14 11 14 16 17 17 17 17 18 17 16 13 15 16 14 14 15 15 15 15 15 16 16 16 15 15 15 15 15 15 15 15 15 15 15 15 15 15 15 15 15 15 16 16 15
15 16 16 16 12 13 13 15 17 16 15 16 17 16 15 13 13 13 14 14 15 15 15 15 16 15 15 15 15 15 15 15 15 15 15 15 15 15 15 15 15 15 15 15 15 15 15 15 15
15 15 16 11 10 13 15 15 16 15 16 16 15 15 14 12 13 14 14 15 15 15 15 15 15 15 15 15 15 15 15 15 15 15 15 15 15 15 15 15 15 15 15 15 15 15 15 15 15
13 14 15 12 12 14 16 17 15 14 15 16 15 12 14 13 13 14 14 14 14 14 15 15 15 15 15 15 15 15 15 15 15 15 15 15 15 15 15 15 15 14 14 14 14 14 14 14 14
13 14 10 11 13 15 14 16 16 15 15 15 15 11 12 13 13 13 14 14 14 14 15 15 15 15 15 15 15 15 15 15 15 15 15 15 15 15 15 14 14 14 14 14 14 14 14 14 14
12 12 10 11 13 15 15 17 16 15 14 14 14 12 13 13 13 13 14 14 14 14 14 15 15 15 15 15 15 15 15 15 15 15 15 15 14 14 14 14 14 14 14 14 14 14 14 14 14
10 8 10 11 13 15 15 17 15 14 14 15 15 10 11 12 13 14 14 14 14 14 15 15 16 16 16 16 16 16 15 15 15 15 15 15 15 15 15 15 14 14 14 14 14 14 14 14 14
12 9 11 10 12 15 14 16 16 16 13 14 15 10 10 13 13 13 14 14 14 14 15 16 16 16 16 15 15 15 15 15 15 15 15 15 15 14 14 14 14 14 14 14 14 14 14 14 14
12 9 9 12 12 15 15 15 15 15 14 14 14 14 14 13 13 13 13 14 14 15 15 15 15 15 15 15 15 15 15 15 14 14 14 14 14 14 14 14 14 14 14 14 14 13 13 13 13
10 8 11 12 12 13 15 16 15 15 13 13 13 14 13 13 13 13 14 14 15 15 15 15 15 15 15 15 15 14 14 14 14 14 14 13 13 13 14 13 13 13 13 13 13 13 13 12 12
10 10 12 13 13 14 14 14 15 14 14 15 15 14 13 13 13 13 14 14 14 14 14 14 14 14 14 14 14 14 14 14 14 13 13 13 13 12 12 12 13 12 13 12 12 12 12 12 12
11 12 12 13 14 14 14 15 14 15 15 17 17 15 13 13 13 13 14 14 14 14 14 14 14 14 14 14 14 14 13 13 13 13 12 12 12 12 12 12 12 12 12 12 12 12 12 11 11
11 12 12 12 13 14 15 13 13 13 15 16 15 13 13 13 13 13 14 14 14 14 13 13 13 14 14 14 14 13 13 13 12 12 11 11 11 11 11 11 11 11 12 11 11 11 11 11 11
12 12 12 12 12 13 13 13 16 12 13 14 14 13 13 13 14 14 14 14 14 14 13 13 13 13 13 13 13 13 13 12 12 11 11 10 11 11 11 11 11 11 11 11 11 11 11 11 11
11 11 11 10 11 13 15 14 12 11 12 13 13 13 13 13 14 14 14 14 13 13 13 13 13 13 13 13 13 12 12 11 11 10 10 10 10 10 10 10 10 10 10 10 10 10 10 10 10
10 9 10 11 10 13 14 14 11 11 12 12 12 12 13 13 14 14 13 13 13 13 13 13 13 13 13 13 12 12 11 11 10 9 9 9 9 9 9 9 9 10 10 10 10 10 9 10 10
6 6 10 12 11 13 13 12 11 11 12 11 12 13 13 13 13 13 13 13 13 12 12 12 12 12 12 12 12 11 11 10 10 9 9 9 9 9 9 9 9 9 9 9 9 10 10 10 10
7 7 9 10 11 12 12 11 9 11 11 12 12 13 13 13 14 13 13 12 12 12 12 12 12 12 11 11 11 11 10 10 9 9 9 8 8 9 9 9 9 9 9 9 10 10 10 10 10
7 9 8 10 10 12 11 11 10 10 11 11 12 12 13 13 14 13 13 12 12 12 12 12 11 11 10 11 11 10 10 10 9 9 9 8 8 8 8 9 9 9 9 10 10 10 10 10 10
9 9 8 9 10 11 11 12 11 9 10 11 12 13 13 13 13 13 13 12 13 12 12 12 11 11 10 11 10 10 10 9 9 9 8 8 8 8 8 8 8 8 9 9 9 9 9 9 9
9 9 7 9 10 9 11 12 12 11 11 12 13 13 13 14 14 13 13 13 13 13 12 11 11 10 10 11 10 9 10 9 9 8 8 8 8 8 8 8 8 8 9 9 9 9 9 9 9
10 9 8 8 8 7 8 9 11 10 10 10 12 13 14 14 14 13 13 13 14 13 12 11 11 10 10 10 10 9 9 9 8 8 8 8 8 8 8 8 8 8 8 8 8 8 8 8 8
10 8 8 8 7 7 10 7 10 10 11 10 11 13 14 14 14 14 14 14 13 13 12 11 11 11 10 10 9 9 10 9 8 8 8 8 7 8 8 8 7 7 7 7 7 7 7 7 7
7 8 7 5 6 6 8 8 10 9 11 11 11 12 13 13 14 14 14 14 14 13 12 11 11 10 10 10 9 10 9 9 9 8 8 7 7 7 7 7 7 7 7 7 7 6 6 6 7
9 7 2 5 4 6 5 8 9 11 10 10 10 9 11 12 13 13 13 13 13 12 11 11 11 10 10 10 10 9 9 9 8 8 8 7 7 7 7 7 7 7 7 7 7 7 7 6 6
8 8 4 6 5 5 6 8 10 9 8 9 10 10 10 11 12 12 12 12 11 11 11 11 11 10 10 9 9 9 9 8 8 8 7 7 7 7 7 7 7 7 7 6 6 6 6 6 6
10 6 7 4 4 5 4 7 8 8 8 8 9 10 10 11 11 11 11 11 11 11 11 11 10 10 10 9 9 9 8 8 8 7 7 7 7 7 7 7 7 7 6 6 6 6 6 6 5
9 7 7 4 7 10 5 7 7 7 7 7 8 9 10 10 10 10 11 11 11 11 11 11 11 10 10 9 9 8 8 8 7 7 7 7 7 6 6 6 6 6 6 6 6 6 5 5 5
8 8 6 5 5 7 9 9 6 7 6 6 8 10 10 10 10 10 11 11 11 10 10 10 10 10 10 9 9 8 8 7 7 7 7 6 6 6 6 6 6 5 5 5 5 5 5 5 5
8 9 7 7 10 5 6 9 7 7 6 8 9 10 10 10 10 10 10 10 10 10 10 10 10 9 9 9 9 8 8 8 8 7 7 7 7 7 6 6 6 6 5 5 4 4 4 4 4

GFSSGP_850_temp_147.txt.gz
Temp
16 16 17 17 17 15 16 18 17 17 18 16 18 17 18 15 18 18 14 14 15 15 15 15 15 15 15 15 15 16 15 15 15 15 15 15 15 15 15 15 15 15 15 15 15 15 15 15 15
15 15 16 16 16 16 18 16 17 17 16 16 17 16 16 16 13 13 14 14 15 15 15 15 15 15 15 15 15 15 15 15 16 15 15 15 15 15 15 15 15 15 15 15 15 15 15 15 15
14 15 15 14 13 17 18 16 17 14 15 16 15 15 14 13 13 13 13 14 14 15 15 15 15 15 15 15 15 15 15 15 15 15 15 15 15 15 15 15 14 14 15 15 15 15 15 15 15
13 14 14 14 14 15 17 17 15 14 15 16 16 14 14 13 13 13 14 13 14 14 15 15 15 15 15 15 15 15 15 15 15 15 15 15 15 15 15 15 15 15 14 15 15 15 14 14 14
12 13 13 12 14 15 14 16 14 15 15 15 15 12 12 13 13 13 13 14 14 14 15 15 15 15 15 15 15 15 15 15 15 15 15 15 15 14 15 15 15 15 14 14 14 14 14 14 14
11 11 12 13 13 14 15 16 16 15 14 14 14 12 13 13 13 13 13 14 14 14 14 15 15 15 15 16 16 16 16 16 16 15 15 15 15 15 15 15 15 15 14 14 14 14 14 13 13
10 10 12 12 13 15 16 15 16 15 14 15 15 12 11 12 13 13 13 14 14 14 14 15 15 16 16 16 16 16 16 15 15 15 15 15 15 15 15 15 15 14 14 14 14 14 14 14 14
11 10 11 11 14 16 14 15 17 16 14 15 15 13 11 12 13 13 13 14 14 14 14 15 16 16 16 16 16 16 15 15 15 15 15 15 15 15 15 14 14 14 14 14 13 13 13 13 13
10 10 11 13 12 16 14 15 14 15 14 13 15 15 14 13 13 13 13 13 14 14 15 15 16 16 16 15 15 15 15 15 15 15 15 15 14 14 14 14 14 13 13 13 13 13 13 13 12
10 9 11 12 12 14 14 15 15 15 13 12 13 14 14 13 13 13 13 14 14 15 15 15 15 15 15 15 14 14 14 14 14 14 14 14 14 14 13 13 13 13 13 13 12 12 12 12 12
9 10 11 13 13 13 14 13 14 13 13 14 15 14 13 13 13 13 13 14 14 15 15 15 15 15 15 14 14 14 14 14 14 14 13 13 13 13 13 13 13 12 12 12 12 12 12 12 12
10 11 12 12 13 13 13 14 13 15 15 17 17 15 13 13 13 13 13 14 14 14 14 14 14 14 14 14 14 14 13 13 13 13 12 12 12 12 12 12 12 12 12 12 12 12 12 12 12
10 11 12 12 13 13 14 13 13 12 14 16 15 13 13 13 13 13 13 14 14 14 14 14 14 14 14 13 13 13 13 13 12 12 12 12 11 11 11 11 11 11 11 11 11 11 11 11 11
11 11 11 11 12 12 13 13 15 11 12 13 14 13 13 13 13 12 13 14 13 14 14 14 13 13 13 13 13 13 13 12 12 11 11 11 11 11 11 11 11 11 11 11 11 11 11 11 11
11 10 11 11 11 13 14 14 12 10 11 11 12 12 13 13 12 13 14 13 13 14 13 13 13 13 13 13 13 12 12 12 11 11 11 11 11 10 10 10 10 10 10 10 11 10 10 10 10
10 9 11 11 11 13 13 14 10 9 11 10 11 12 12 12 13 13 13 13 13 13 13 13 13 13 12 12 12 12 12 11 11 10 10 10 10 10 10 10 10 10 10 10 10 10 10 11 10
7 8 9 11 11 12 13 12 9 9 10 10 11 12 12 12 12 13 13 13 13 13 13 13 12 12 12 12 12 12 11 11 11 10 10 10 10 9 9 9 9 9 9 9 10 10 10 10 10
8 8 9 10 11 12 11 10 9 9 10 10 11 11 12 12 13 13 13 13 12 12 12 12 12 12 12 12 11 11 10 11 11 10 10 9 9 9 9 8 8 9 9 9 9 10 9 9 8
8 8 9 9 10 11 11 10 10 9 10 10 11 11 12 13 13 13 13 12 12 12 12 12 12 11 11 11 11 11 10 10 10 10 9 9 9 9 8 8 8 8 9 9 9 9 9 9 9
9 9 8 9 9 11 11 11 10 9 10 10 11 12 12 13 13 13 13 13 13 12 12 12 12 11 11 11 10 10 10 10 10 9 9 8 9 8 8 8 9 8 8 9 9 9 8 8 8
9 9 7 10 10 9 11 12 11 10 10 12 12 12 13 13 13 13 13 13 13 13 12 12 11 11 10 10 10 10 10 10 9 9 8 9 8 8 8 8 8 8 8 8 8 8 8 8 8
10 9 9 9 10 11 9 12 11 10 10 10 12 12 13 13 13 13 13 13 13 13 12 12 11 11 10 10 9 10 10 10 9 9 8 9 8 8 8 8 8 7 8 8 8 8 8 8 8
9 8 8 8 8 9 10 10 12 10 11 11 11 13 14 14 13 14 14 14 13 13 12 12 11 11 10 10 10 10 10 9 9 9 9 8 8 8 8 8 7 7 7 7 7 7 7 7 7
6 8 7 6 8 9 7 10 12 10 11 11 11 12 13 13 13 13 14 14 14 13 12 11 11 11 10 9 10 10 10 9 9 9 8 8 8 7 7 7 7 7 7 7 7 7 7 7 7
9 7 5 7 6 8 5 9 12 10 9 9 10 10 12 12 13 13 13 13 13 13 12 11 11 10 10 10 10 9 9 9 9 8 8 8 8 7 7 7 7 7 7 7 7 7 7 6 6
8 8 6 8 8 8 6 9 13 8 7 8 9 9 10 11 11 12 12 12 12 12 11 11 11 10 10 10 10 9 9 9 8 8 8 8 7 7 7 6 7 7 7 7 7 7 6 6 6
9 7 7 5 4 8 6 8 9 8 7 7 8 9 9 10 11 11 11 11 11 11 11 11 11 10 10 10 9 9 9 8 8 8 8 8 7 7 7 7 7 7 7 6 6 6 6 6 6
9 7 8 6 8 10 7 8 9 7 7 6 7 8 9 9 10 10 11 11 11 11 11 11 11 11 10 10 9 9 8 8 8 8 8 7 7 7 7 7 6 6 6 6 5 6 5 5 5
8 8 6 6 6 9 9 11 6 7 7 7 7 9 9 9 10 10 10 11 11 10 10 11 11 11 10 10 9 9 8 8 8 8 7 7 7 6 6 6 6 6 6 6 5 5 5 5 5
7 9 7 8 10 5 7 11 6 6 6 7 8 9 9 9 10 10 10 10 10 10 10 10 10 9 9 9 9 8 8 8 8 8 7 7 7 7 7 7 6 6 6 6 5 5 5 4 4

GFSSGP_850_temp_150.txt.gz
Temp
16 16 17 17 21 22 23 24 24 23 23 22 22 22 24 23 23 22 14 14 15 15 15 15 15 15 15 15 15 15 15 15 15 15 15 15 15 15 15 15 15 15 15 15 15 15 16 15 15
15 16 16 18 21 22 24 25 22 24 22 19 19 20 21 20 15 14 14 14 14 15 15 15 15 15 16 16 15 15 15 15 15 15 15 15 15 15 15 15 15 15 15 15 15 15 15 15 15
14 15 17 20 21 22 25 24 25 22 19 20 19 18 19 16 14 14 14 14 14 15 15 15 15 15 16 16 16 16 15 15 15 15 15 15 15 15 15 15 15 15 15 15 15 15 15 15 15
12 13 15 19 21 23 25 24 24 20 18 18 20 20 14 14 13 14 14 14 14 14 14 15 15 15 15 15 15 15 15 15 15 15 15 15 15 15 15 15 15 15 14 14 14 14 14 14 14
12 14 19 18 21 22 23 21 21 21 21 19 19 17 15 13 14 14 14 13 14 14 15 15 15 15 15 15 15 15 16 16 15 15 15 15 15 15 15 15 15 15 15 14 14 14 14 14 14
13 14 18 19 20 21 22 21 20 22 21 19 18 18 15 13 13 13 13 14 14 14 15 15 15 15 15 15 16 16 16 16 16 16 16 16 16 16 16 15 15 15 15 14 14 14 14 14 14
14 16 18 20 21 22 22 20 21 21 19 19 18 19 13 12 13 13 13 14 14 14 14 15 15 15 15 16 16 16 16 16 16 16 15 15 15 15 15 15 15 15 14 14 14 14 14 14 14
13 15 17 18 20 21 22 19 20 20 20 15 16 19 14 12 13 13 13 14 14 14 14 15 15 16 16 16 16 16 15 15 15 15 15 15 15 14 14 14 14 14 14 14 14 14 14 13 13
11 15 17 18 19 21 19 20 17 16 16 15 14 15 14 11 13 13 13 13 14 14 14 15 15 15 15 15 15 15 15 15 15 15 14 14 14 14 14 14 13 13 13 13 13 13 13 13 13
12 14 17 19 19 20 18 20 17 18 16 15 14 13 11 13 12 13 13 13 14 14 15 15 15 15 15 15 15 15 14 14 14 14 14 14 14 13 13 13 13 13 13 13 13 13 13 12 11
12 14 17 16 16 15 19 18 18 20 18 18 16 12 11 12 11 13 13 14 14 15 15 15 15 15 15 15 14 14 14 14 14 14 13 13 13 13 12 12 12 12 12 12 12 12 12 12 12
12 13 15 16 14 15 17 18 17 19 19 17 17 13 11 11 12 12 13 14 14 14 15 15 15 14 14 14 14 14 14 13 13 13 13 12 12 12 12 12 12 12 12 12 12 12 12 12 12
12 14 14 14 13 14 15 17 19 17 14 14 14 12 12 12 12 12 13 14 14 14 14 14 14 14 14 14 13 13 13 13 12 12 12 11 11 11 11 11 11 11 11 11 11 11 11 11 11
13 13 14 14 14 14 16 16 16 13 12 12 12 12 12 12 11 12 13 14 14 14 14 14 14 14 13 13 13 13 13 12 12 12 11 11 11 11 11 11 11 11 11 11 11 11 11 11 11
13 13 13 14 14 16 16 16 16 12 11 11 12 12 12 12 11 12 13 14 14 14 13 13 13 13 13 13 13 13 12 12 11 11 11 11 11 11 10 10 10 10 10 10 10 10 10 10 10
12 14 13 15 14 15 16 18 15 11 12 12 12 12 11 11 12 12 13 13 13 13 13 13 13 13 13 13 13 12 12 11 11 11 10 11 10 10 10 10 10 10 10 10 10 10 10 8 9
12 12 14 14 14 15 15 19 14 11 13 13 12 12 12 11 11 12 13 13 13 13 13 13 12 12 13 12 12 12 11 11 11 10 10 10 10 9 9 9 9 9 9 10 10 10 10 9 10
11 13 14 15 14 14 15 16 14 12 13 14 13 13 12 11 11 11 12 13 12 13 13 13 12 12 12 12 12 11 11 11 10 10 10 10 9 9 9 9 9 9 9 9 10 10 10 9 9
14 15 14 14 13 15 16 16 14 13 13 14 14 13 12 12 11 12 12 13 12 13 12 12 12 12 12 11 11 11 11 11 10 9 10 9 9 9 9 8 9 9 9 9 9 9 9 9 9
14 14 15 12 13 16 15 15 15 13 14 14 14 13 13 12 11 12 12 12 12 13 12 12 12 12 12 11 11 11 10 10 9 9 9 9 9 8 9 9 9 9 9 9 9 9 9 9 9
13 15 13 13 13 14 16 15 14 14 13 12 13 13 13 12 12 12 12 13 13 12 12 12 12 12 11 11 11 11 10 10 9 9 9 9 8 9 9 8 8 9 9 9 9 9 8 8 8
13 14 14 14 16 15 14 16 15 16 14 14 14 13 13 11 12 13 13 13 13 13 12 12 12 11 11 11 11 10 10 9 9 9 9 9 8 8 8 8 8 8 8 9 8 8 8 8 8
13 13 14 15 17 15 15 17 18 14 15 16 15 14 13 12 13 13 13 13 13 13 12 12 12 11 11 10 10 10 10 9 9 9 9 8 8 8 8 8 8 8 8 8 8 8 8 7 7
11 13 12 14 15 15 14 15 17 16 17 17 17 15 14 12 13 13 13 13 13 13 12 12 11 11 10 10 10 10 9 9 9 9 9 9 8 8 8 8 8 8 8 8 8 7 7 7 7
12 14 10 12 12 15 10 14 18 16 14 16 16 15 13 12 13 13 13 13 13 13 13 12 12 11 10 10 10 10 9 9 9 9 9 9 8 8 8 8 8 8 8 7 7 7 7 6 6
13 13 13 11 13 13 10 16 18 13 11 10 11 11 10 10 12 12 13 13 13 13 12 12 11 10 10 10 10 9 9 9 9 9 9 8 8 8 7 7 7 7 7 7 6 7 7 6 6
12 13 11 12 10 15 14 14 13 11 10 10 10 9 9 9 10 11 11 12 12 12 12 11 11 10 10 10 10 9 9 9 9 8 8 8 7 7 7 7 7 7 7 6 6 6 6 6 6
12 11 13 12 13 15 13 14 18 11 12 11 10 10 9 8 9 10 11 11 11 11 11 11 11 11 10 10 9 9 9 8 8 8 8 7 7 7 7 7 7 7 7 6 6 6 6 6 5
11 12 11 12 12 16 16 17 14 13 12 11 11 10 9 8 9 10 10 10 10 10 11 11 11 10 10 9 9 9 9 8 8 8 8 8 8 7 7 7 7 7 6 6 6 6 5 5 5
10 12 13 14 13 12 14 17 11 11 12 12 11 10 9 8 9 10 10 10 10 10 10 10 10 9 9 9 9 8 8 8 8 8 8 8 7 7 7 7 7 7 7 6 6 6 6 5 5

GFSSGP_850_temp_153.txt.gz
Temp
16 15 15 17 22 23 24 25 29 26 26 27 26 27 27 26 25 22 15 16 16 15 15 16 16 16 16 16 16 16 16 16 16 15 15 15 15 15 15 15 15 15 15 15 15 15 15 15 15
13 14 16 20 21 23 24 27 26 27 26 24 25 23 25 23 18 14 15 15 15 15 15 15 15 16 16 16 16 16 15 15 15 15 15 15 15 15 15 15 15 15 15 15 15 15 15 15 15
13 13 18 20 21 23 25 28 28 27 23 24 23 22 23 20 15 14 15 15 15 15 15 15 16 16 16 16 15 15 15 15 15 15 15 15 15 15 15 15 15 15 15 15 14 14 14 14 14
13 15 17 19 22 24 26 29 27 27 23 23 23 23 17 15 15 14 15 14 14 14 15 15 15 15 15 15 15 15 15 15 15 15 15 15 15 15 15 15 15 15 15 14 14 14 14 14 14
13 17 18 19 21 25 27 28 25 26 23 22 23 21 17 14 13 14 14 14 14 14 14 15 15 15 15 15 15 15 15 15 16 16 16 16 16 16 16 15 15 15 15 14 14 14 14 14 14
15 17 19 19 21 24 26 27 24 25 25 24 22 21 16 13 13 14 14 14 14 13 15 15 15 15 15 15 15 16 16 16 16 16 16 16 16 16 15 15 15 15 15 15 15 15 14 14 14
14 17 18 21 22 23 25 25 24 25 25 24 22 22 16 13 13 14 13 12 12 14 15 15 15 15 15 16 16 16 16 16 16 16 16 15 15 15 15 15 15 15 15 15 14 14 14 14 14
14 16 18 19 21 22 24 24 24 25 25 23 21 22 17 14 13 13 12 12 13 14 15 15 15 15 16 16 16 16 16 15 15 15 15 15 15 15 15 14 14 14 14 14 14 14 14 14 13
13 14 17 18 20 22 24 24 22 23 21 20 19 19 18 13 13 13 12 13 13 14 15 15 15 16 16 16 16 15 15 15 15 15 15 15 13 13 12 14 13 13 13 13 13 13 13 13 13
13 14 16 19 22 22 24 23 22 21 21 19 16 16 14 13 12 11 12 13 13 14 15 15 15 15 15 15 15 15 15 15 14 15 14 13 13 13 13 13 13 13 13 13 13 13 13 12 11
13 14 17 18 20 20 19 22 22 20 21 20 18 16 13 12 12 12 12 13 13 14 14 15 15 15 15 15 14 14 14 14 14 14 13 13 12 12 10 9 10 10 11 10 11 10 10 11 11
11 14 15 17 17 16 18 20 22 20 22 21 19 15 13 13 13 13 13 12 13 14 15 15 15 15 15 15 14 14 13 13 12 13 13 12 11 12 11 10 10 10 11 11 11 10 10 10 10
10 14 15 15 17 15 16 19 21 20 17 18 18 15 14 14 14 14 13 12 14 14 14 15 15 14 14 14 14 13 13 12 12 12 12 12 11 11 10 11 10 11 11 11 11 10 11 9 10
10 12 14 15 16 16 16 18 19 20 16 17 16 15 14 14 14 13 12 12 13 14 14 14 14 14 14 14 14 13 13 12 12 11 12 11 11 10 10 10 10 11 11 10 10 11 11 8 8
9 8 13 15 15 16 16 18 17 18 16 16 16 15 15 15 14 13 13 12 12 14 14 14 14 14 14 14 14 13 12 12 11 11 11 11 11 10 10 10 10 10 10 10 10 10 9 8 9
8 9 8 15 16 16 16 18 19 15 15 16 16 15 15 14 13 13 12 12 11 12 14 14 13 13 13 13 13 12 12 12 11 11 11 11 10 10 10 10 10 10 10 10 10 10 8 8 10
5 6 9 14 17 17 16 18 20 15 16 16 16 15 14 14 13 13 12 12 12 13 13 13 13 13 13 13 12 12 12 11 11 11 11 10 10 10 10 10 10 10 10 10 10 10 10 7 9
7 7 11 15 16 16 16 19 17 15 16 17 16 15 14 13 13 12 12 11 12 11 13 13 13 12 12 13 12 11 11 11 11 11 11 10 10 10 10 10 10 10 10 10 10 10 10 10 9
5 8 14 16 17 16 16 18 17 16 16 17 16 15 14 13 13 12 11 11 12 12 13 13 12 13 12 12 11 10 9 11 11 11 10 10 9 9 10 9 9 9 10 10 10 10 10 9 10
5 8 15 16 15 16 17 18 17 16 17 17 17 16 15 13 12 11 10 12 12 13 12 12 12 12 11 12 11 10 10 11 10 11 10 10 9 9 10 9 9 9 10 9 9 9 9 9 9
8 12 15 14 15 17 18 17 16 16 17 17 17 16 15 14 13 11 10 12 12 12 13 13 12 12 11 12 11 11 11 10 11 10 10 9 9 9 9 9 9 9 9 9 9 9 9 8 9
12 16 16 15 15 15 18 15 16 16 16 16 16 16 16 15 13 12 11 11 13 13 13 12 12 12 11 11 11 11 10 9 10 10 10 9 9 9 9 9 9 9 9 8 8 8 8 8 8
11 15 14 16 16 17 17 16 18 17 16 16 16 16 16 15 14 13 11 13 13 13 13 13 12 11 11 11 11 11 10 10 10 10 10 9 9 9 9 9 8 8 8 8 8 8 8 8 7
13 14 14 16 17 14 17 18 19 18 18 17 17 16 16 15 13 13 12 12 12 13 13 12 12 11 11 11 11 10 10 10 10 10 9 8 8 9 8 8 8 8 8 8 8 8 8 7 7
12 13 11 12 11 14 16 16 19 19 19 20 18 17 16 15 14 12 12 13 13 13 13 12 11 11 11 11 11 10 10 10 10 9 8 8 8 7 8 8 8 7 7 7 7 8 8 7 7
14 13 12 11 13 14 13 16 17 16 16 14 19 18 16 14 13 12 12 13 13 13 12 12 12 11 11 11 10 10 10 9 9 8 8 8 8 8 8 8 7 7 7 7 7 7 7 7 7
13 12 12 13 14 15 15 17 14 13 13 14 14 14 13 13 12 10 11 12 12 12 12 12 11 11 10 10 10 10 9 9 9 8 8 8 8 8 8 7 7 7 7 7 6 7 6 6 6
13 13 11 12 13 15 15 17 17 13 13 14 13 13 12 11 10 9 10 10 10 11 11 11 10 10 10 10 10 9 8 8 8 8 8 8 8 8 8 7 7 7 7 7 6 6 6 6 6
13 14 13 14 14 16 16 17 16 16 15 13 13 13 11 10 10 9 8 10 11 11 11 10 10 10 10 10 9 9 9 8 8 8 8 8 8 8 7 7 7 7 7 7 6 6 6 6 6
11 13 14 15 15 16 17 16 14 14 16 14 13 12 11 10 9 8 9 10 10 10 10 10 10 10 10 9 9 9 8 8 8 8 8 8 8 8 8 7 7 7 7 6 6 6 5 5 5

GFSSGP_850_temp_156.txt.gz
Temp
16 16 15 17 17 18 19 21 23 25 26 28 27 27 26 21 22 19 17 17 18 16 16 16 16 16 16 16 16 16 15 15 15 15 15 15 15 15 15 15 15 15 15 15 15 15 15 15 15
15 14 16 17 16 18 20 23 23 25 27 26 26 25 25 19 17 16 16 16 17 16 16 16 16 16 16 16 16 15 15 15 15 15 15 15 15 15 15 15 15 15 15 15 15 14 14 14 14
15 14 16 16 17 18 20 23 24 27 25 24 23 23 22 17 15 16 16 16 16 15 15 15 16 16 16 16 15 15 15 15 15 15 15 15 15 15 15 15 15 15 14 14 14 14 14 14 14
13 14 15 15 18 19 21 24 27 24 24 25 23 19 18 17 15 15 15 15 15 15 15 16 16 16 16 16 15 15 15 15 15 15 15 15 15 15 15 15 15 15 15 15 15 14 14 14 14
13 15 14 15 17 20 22 24 26 25 23 24 24 18 15 15 15 15 15 15 15 14 15 16 16 16 16 15 15 15 15 16 16 16 16 16 16 16 15 15 15 15 15 15 15 15 14 14 14
13 15 14 14 17 20 22 25 25 25 23 23 24 18 15 14 14 14 14 14 14 14 15 16 16 16 16 16 16 16 16 16 16 16 16 16 16 16 16 15 15 15 15 15 15 15 15 14 14
12 13 14 16 17 19 21 23 23 24 24 23 23 18 14 13 14 14 14 14 14 13 15 15 15 16 16 16 16 16 16 16 16 16 16 15 15 15 15 15 15 15 15 15 14 14 14 14 14
12 13 12 14 16 18 22 24 25 25 24 25 23 17 14 13 14 14 13 13 13 13 14 15 15 15 16 16 16 16 16 16 16 15 15 15 15 15 15 15 14 14 14 14 14 14 14 13 13
12 11 12 13 15 18 21 22 24 24 24 23 21 19 19 15 13 13 12 13 13 13 14 14 15 15 17 16 16 16 16 16 15 15 15 14 14 13 14 13 13 13 13 13 13 13 13 12 12
11 11 12 15 16 18 20 21 23 22 22 20 18 16 16 14 13 13 12 12 12 13 14 14 15 16 16 16 16 16 15 15 15 14 14 13 13 13 12 12 12 12 12 12 12 11 11 11 10
11 10 13 15 16 18 18 19 20 21 19 20 17 14 14 13 13 13 12 13 13 14 14 14 15 15 15 15 15 15 15 14 15 14 14 13 13 12 11 10 11 12 12 11 11 10 10 11 11
10 12 13 14 15 17 16 18 18 20 21 21 19 16 14 13 13 13 12 12 13 14 15 15 15 15 15 14 14 14 14 14 14 14 13 13 12 12 11 11 11 11 11 11 11 11 11 10 10
10 11 12 14 15 15 16 16 16 17 21 20 18 15 13 12 12 12 12 12 13 14 15 15 15 14 15 15 14 14 14 14 13 13 13 12 12 12 11 11 11 11 11 11 11 11 11 11 9
11 11 11 11 12 15 15 16 17 18 20 18 17 14 13 12 13 13 12 12 13 15 15 15 15 14 14 14 14 14 13 13 13 13 12 12 12 11 11 11 11 11 11 11 11 11 10 9 10
9 9 10 11 11 13 15 15 15 17 17 17 15 14 13 13 14 13 12 12 13 14 15 15 14 14 14 14 14 14 13 13 13 12 12 12 12 11 11 11 11 11 11 11 11 11 9 10 11
8 8 8 10 10 11 14 13 15 17 17 17 16 15 14 14 14 13 12 12 13 14 14 14 14 14 14 14 14 13 12 13 12 12 12 11 11 11 11 11 11 11 11 11 11 11 10 11 11
6 6 7 9 10 9 11 13 15 17 16 16 16 15 15 15 14 13 12 12 12 14 14 14 14 14 14 13 13 13 12 13 12 12 11 11 11 11 11 10 10 10 11 11 11 11 10 10 10
6 6 8 8 11 11 9 14 15 16 16 16 16 15 15 14 13 13 12 12 12 13 14 14 13 13 13 13 13 12 12 12 12 11 11 11 10 11 11 10 10 10 10 11 11 11 10 10 9
7 7 8 9 11 8 9 14 15 16 16 16 16 15 14 13 13 13 12 11 11 12 13 14 13 13 13 13 12 12 12 11 12 11 11 11 10 11 11 10 10 10 10 11 10 10 10 10 9
7 6 6 8 9 8 12 14 16 14 15 16 16 15 14 13 13 12 11 11 12 13 13 13 13 12 12 12 11 12 11 11 11 11 11 10 10 10 10 10 10 10 10 10 10 9 9 9 9
5 5 7 7 10 10 13 13 16 15 16 17 16 15 14 13 12 12 11 11 12 13 13 13 13 12 12 12 12 11 10 11 11 11 11 10 10 10 10 9 9 9 9 9 9 9 9 8 9
6 7 7 8 11 10 14 9 12 14 14 15 16 15 14 13 12 11 11 12 13 13 13 13 12 12 12 12 12 11 11 11 11 11 11 10 10 10 9 9 8 8 9 9 9 9 8 8 8
6 11 10 10 12 12 13 10 13 14 14 14 14 16 14 13 12 12 12 12 13 13 13 12 12 12 12 12 12 11 11 10 10 10 10 10 10 9 9 8 8 8 8 8 8 8 8 8 8
8 10 9 10 11 9 12 14 12 13 14 14 14 16 15 14 13 12 12 13 13 12 12 12 12 12 12 12 12 11 10 10 10 10 9 9 9 9 9 8 8 8 8 8 8 8 8 8 8
9 8 8 8 7 8 13 13 14 15 15 15 14 15 16 15 14 13 12 12 12 12 12 12 12 12 12 12 11 11 10 10 10 9 9 9 8 8 8 8 8 8 7 7 7 7 7 7 7
10 11 7 9 8 8 11 11 13 12 14 17 16 15 16 14 13 13 12 12 12 12 12 12 12 12 11 11 11 10 10 10 9 9 9 8 8 8 7 7 7 7 7 7 7 7 7 7 7
12 9 10 9 10 9 9 12 13 12 12 14 16 16 15 14 13 13 12 12 12 12 12 12 12 11 11 11 10 10 9 9 9 9 9 9 8 8 7 7 7 7 7 7 7 7 7 6 6
12 11 9 8 9 11 9 13 9 10 11 12 11 12 13 13 12 12 11 11 11 12 12 11 11 11 10 10 10 9 9 9 9 9 8 8 8 8 7 7 8 7 7 7 7 7 6 6 6
11 11 11 11 10 9 10 11 12 10 11 10 10 12 12 11 11 10 10 10 11 11 11 11 10 10 10 10 9 9 9 9 8 8 8 8 7 7 7 7 7 7 7 6 6 6 6 6 6
11 12 11 10 11 9 11 10 12 12 11 11 12 12 11 10 9 9 9 10 10 10 10 10 10 10 10 10 9 9 9 8 8 8 7 7 7 7 7 7 7 7 7 7 7 6 6 6 6

GFSSGP_850_temp_159.txt.gz
Temp
16 17 17 17 14 12 14 17 19 20 24 26 26 24 19 16 20 19 17 17 18 17 17 17 17 16 16 16 16 16 15 15 15 15 15 15 15 15 15 15 15 15 15 15 15 15 15 15 15
15 15 16 16 12 13 14 17 20 20 25 26 25 22 20 16 16 15 17 17 17 17 16 16 16 16 16 15 16 16 15 15 15 15 15 15 15 15 15 15 15 15 15 15 14 14 14 14 14
14 14 15 12 11 13 15 19 18 22 25 25 22 21 18 15 16 16 16 16 17 16 16 15 16 15 16 16 16 16 15 15 15 15 15 15 15 15 15 15 15 15 15 14 14 14 14 14 14
12 13 14 11 12 15 17 18 20 22 23 24 22 15 17 16 16 16 16 16 16 15 15 15 16 16 16 16 16 16 15 15 15 15 15 15 15 15 16 16 15 15 15 15 14 14 14 14 14
13 13 10 10 12 15 16 19 21 21 21 22 23 15 14 15 15 16 16 16 16 15 15 15 15 16 16 16 16 16 16 16 16 16 16 16 16 16 16 16 15 15 15 15 15 15 14 14 14
12 13 9 10 12 14 16 20 20 22 22 22 19 14 14 14 15 15 15 16 16 15 15 15 15 15 16 16 16 16 16 16 16 16 16 16 16 15 15 15 15 15 15 14 14 14 14 14 14
10 9 9 10 12 13 16 21 19 20 21 22 20 13 13 13 14 15 15 15 15 14 15 15 15 15 15 16 16 16 16 16 16 16 15 15 15 15 15 15 15 14 14 14 14 14 14 13 13
11 10 10 10 11 12 16 19 20 22 21 23 22 13 12 13 14 14 14 14 14 13 14 15 15 15 15 16 16 16 16 16 16 15 15 15 16 15 15 14 14 14 14 13 13 13 13 13 13
10 9 9 10 12 13 16 15 18 20 23 20 19 19 20 15 14 14 13 13 13 13 14 14 15 15 16 16 16 16 16 16 15 15 15 15 15 15 13 13 13 13 13 13 13 13 12 12 12
9 8 10 12 12 13 15 16 16 18 19 15 16 18 17 15 14 14 13 13 13 13 14 14 15 16 16 16 16 15 15 15 15 15 15 14 13 13 13 13 13 13 13 13 13 13 12 12 11
10 9 11 12 13 13 14 14 16 17 15 17 14 15 14 14 14 13 13 13 13 14 14 14 14 15 16 15 15 15 15 15 15 14 14 14 13 12 13 12 13 13 13 13 12 12 12 12 11
9 10 11 11 12 12 12 13 14 16 17 17 21 19 15 13 13 14 12 13 13 13 14 14 15 15 15 15 14 14 14 15 14 14 14 14 13 13 12 12 12 12 12 12 12 12 11 11 11
8 10 10 11 11 11 11 12 13 14 16 17 16 16 16 14 13 13 12 12 13 13 14 14 15 15 15 15 14 14 14 14 14 14 14 14 13 13 13 13 12 12 12 12 12 12 11 11 11
9 9 9 10 10 10 11 12 13 15 16 15 16 15 15 14 13 13 12 12 13 13 14 15 14 15 15 15 14 14 14 14 14 14 14 14 13 12 12 12 12 12 12 12 12 11 12 11 10
8 7 8 9 10 10 11 11 12 15 16 14 14 14 13 13 12 13 12 12 13 13 14 15 14 15 15 14 14 14 14 14 14 13 13 13 12 12 12 12 11 12 11 12 11 11 11 11 10
7 7 6 9 10 11 9 9 11 14 15 14 12 13 13 12 13 12 12 12 13 13 14 14 14 14 14 14 14 14 14 13 14 13 13 13 12 12 12 11 11 11 11 11 11 11 11 11 11
5 3 5 7 10 10 9 9 11 13 14 14 13 13 12 12 12 12 12 12 13 13 14 14 14 14 14 14 14 14 13 13 13 13 13 12 11 11 11 10 11 11 11 11 11 10 10 11 11
4 5 6 7 10 10 9 9 10 11 12 14 14 13 13 13 13 13 13 12 13 13 14 14 14 14 14 13 13 13 13 12 12 12 12 12 11 11 11 10 10 10 10 10 10 10 10 11 10
6 5 5 7 10 9 8 9 10 11 12 13 14 14 13 13 13 13 12 12 12 13 13 13 14 13 14 13 13 12 13 12 12 11 12 11 11 10 10 10 10 10 10 10 10 10 10 10 10
5 5 5 6 8 8 8 8 10 11 11 14 13 13 13 13 13 12 12 12 12 12 13 13 13 13 13 13 13 12 12 12 12 11 11 11 10 10 10 10 10 10 10 10 10 10 10 10 10
6 6 6 6 8 9 8 8 8 11 13 14 14 14 14 13 13 12 11 11 11 12 13 13 13 13 13 13 12 12 11 12 12 11 11 11 10 10 9 9 9 9 9 9 9 9 9 9 9
5 7 6 7 6 7 8 7 10 11 13 11 13 13 12 12 12 12 11 11 11 12 13 13 13 13 13 12 12 11 11 11 11 11 11 10 10 9 9 9 9 9 9 9 9 9 9 9 8
6 6 5 6 7 7 7 7 12 12 12 12 12 12 12 13 12 12 12 12 12 12 13 13 12 12 12 12 11 11 11 11 11 11 11 10 9 9 9 9 9 9 9 8 8 8 8 8 8
7 7 8 7 8 8 8 8 9 10 13 11 12 12 12 12 12 12 12 12 12 12 12 12 12 12 12 12 11 11 11 10 10 10 10 9 10 9 9 9 8 8 8 8 7 7 7 7 7
6 6 7 8 7 6 9 10 11 13 13 12 12 12 12 12 12 12 12 11 11 12 12 12 12 12 12 11 11 11 10 10 10 10 9 9 9 9 8 8 8 8 8 7 7 7 7 7 6
7 8 7 8 7 7 10 9 13 11 13 15 14 13 12 12 12 12 12 12 11 12 12 12 12 12 11 11 11 10 10 10 10 10 9 9 8 8 8 8 8 8 7 7 7 7 7 6 6
10 8 9 8 8 8 7 11 12 10 11 12 13 12 12 12 13 13 12 12 12 12 12 12 12 11 11 11 10 10 10 10 10 9 9 8 8 8 8 7 7 7 7 7 6 7 7 7 6
10 10 8 7 8 10 8 10 9 10 10 11 10 11 12 13 13 13 12 12 12 12 11 11 11 11 10 10 10 10 10 9 9 9 8 8 8 8 8 8 7 7 7 7 7 7 7 7 6
10 8 9 8 7 8 9 10 11 10 9 11 11 12 12 13 13 12 12 11 11 11 11 11 10 10 9 9 9 10 9 9 8 7 7 7 7 7 7 7 7 7 7 7 7 7 7 7 7
10 10 10 9 8 7 7 10 9 9 9 9 9 9 11 12 12 12 11 11 10 10 10 10 10 9 9 9 9 9 8 8 7 7 7 7 7 7 7 7 7 7 7 7 7 7 7 7 6

GFSSGP_850_temp_165.txt.gz
Temp
15 16 16 17 13 10 12 15 17 20 20 20 21 19 19 19 20 18 18 19 18 18 17 17 17 17 16 16 15 16 16 15 15 15 15 15 15 15 15 14 15 15 15 15 14 15 15 15 14
14 15 15 15 11 11 12 13 17 18 20 20 21 19 19 18 17 17 17 18 18 18 17 17 17 16 16 16 16 15 15 15 15 15 15 15 15 15 15 15 15 14 14 14 14 14 14 14 14
13 14 15 10 8 12 13 15 15 18 20 21 21 18 17 15 15 18 18 18 17 17 17 17 16 16 16 16 16 15 15 15 15 15 15 15 15 15 15 15 15 15 14 14 14 14 14 14 14
13 13 13 9 9 10 13 16 15 16 20 20 19 18 16 15 15 17 17 17 16 17 16 16 16 16 16 16 15 15 15 15 15 15 15 15 15 15 15 15 15 15 15 15 14 14 14 14 14
12 12 9 8 9 11 12 15 15 14 17 18 18 17 15 14 15 16 16 16 16 16 16 15 15 15 16 16 15 15 15 15 15 15 16 16 16 16 15 15 15 15 15 15 14 14 14 14 14
11 10 7 7 9 11 11 16 15 16 17 18 18 14 14 14 15 15 16 15 16 16 15 15 15 16 16 15 15 15 15 15 16 16 16 16 16 15 15 15 15 15 14 14 14 14 14 14 14
9 7 7 8 8 11 13 16 15 15 15 17 17 13 13 14 15 15 15 16 16 16 15 15 15 15 15 15 15 15 15 16 16 16 16 16 15 15 15 15 14 14 14 14 14 14 13 13 13
10 7 8 7 8 9 13 15 15 15 15 16 16 13 13 14 14 15 15 15 15 15 14 15 15 15 15 15 15 15 16 16 16 16 16 15 15 15 15 15 14 14 13 13 13 13 13 12 13
9 9 6 8 8 10 13 12 13 13 14 14 16 15 15 14 14 15 15 15 15 15 14 14 14 14 14 15 15 16 16 16 15 15 15 15 14 14 14 14 14 14 13 13 13 13 12 12 12
8 6 7 8 9 10 10 10 11 12 12 14 14 15 15 14 14 15 15 15 14 15 14 14 14 14 14 15 15 16 15 15 15 15 15 14 14 13 13 13 13 13 12 12 12 12 12 12 11
8 7 8 10 10 10 10 10 11 11 10 13 13 13 13 13 13 14 15 15 15 15 14 14 14 14 14 15 15 15 15 15 15 14 14 14 13 13 12 12 12 12 12 12 12 12 12 12 11
6 8 8 9 10 10 9 10 9 10 10 12 13 13 14 13 13 13 15 15 15 15 14 14 13 14 14 15 15 15 14 14 14 14 14 14 13 13 12 12 12 12 12 12 12 12 12 12 12
6 7 8 8 8 9 9 9 9 9 10 11 13 14 14 14 13 12 13 14 14 14 13 13 13 14 14 15 15 15 14 14 14 14 13 13 13 12 12 12 12 12 12 12 12 12 12 12 11
7 7 7 8 8 8 8 9 9 10 11 12 13 14 14 13 13 12 12 14 14 13 13 13 13 13 14 14 14 14 14 13 13 13 13 13 12 12 12 12 12 12 12 12 12 11 11 11 11
6 6 6 7 7 7 9 8 8 10 10 11 13 14 14 12 12 12 12 13 14 13 13 13 13 13 14 14 14 13 13 13 13 13 12 13 12 12 12 12 11 12 12 11 12 11 11 11 11
6 5 6 7 7 8 8 7 9 10 11 11 12 13 13 12 12 11 12 13 13 12 12 13 12 13 13 13 13 13 13 13 12 12 12 12 12 12 11 11 11 11 11 11 11 11 11 11 11
5 5 5 5 7 8 7 7 9 10 11 11 12 12 12 11 11 11 12 12 13 12 12 12 12 13 13 12 12 12 12 12 12 12 12 12 11 12 11 11 10 11 11 11 11 11 11 11 11
5 5 4 4 7 7 7 7 9 10 10 10 11 12 11 11 11 11 11 12 12 12 11 12 13 12 12 12 12 12 12 12 12 11 12 11 11 11 11 11 11 11 11 11 11 11 11 11 11
6 4 5 5 6 6 6 7 8 9 9 9 11 11 12 10 11 11 11 12 12 12 11 12 12 12 12 12 12 12 12 12 12 11 11 11 11 11 11 10 11 11 11 11 11 10 10 10 10
5 4 5 6 6 6 5 6 7 7 8 9 10 10 11 11 11 11 11 11 11 12 11 11 12 12 12 12 12 12 12 11 11 11 11 11 11 11 10 10 10 10 11 10 10 10 9 9 9
4 4 5 5 6 6 5 5 7 8 9 9 10 10 11 11 10 10 11 11 11 11 12 11 12 12 12 11 11 11 11 11 11 11 11 10 11 10 10 10 10 10 10 9 9 9 9 9 9
5 6 6 6 5 5 6 6 7 7 8 8 9 10 10 13 11 11 11 11 11 11 11 12 11 11 11 11 11 11 12 11 11 10 11 10 10 10 9 9 9 9 9 8 8 9 8 8 8
5 6 5 5 5 5 5 6 7 7 8 7 9 9 10 14 12 10 11 12 11 11 11 11 11 11 11 11 11 11 11 11 10 10 10 10 10 10 9 9 9 9 8 8 8 8 7 7 7
7 6 6 5 5 5 7 6 8 8 9 9 9 10 10 13 11 11 11 11 11 11 11 11 11 11 11 11 10 11 11 11 10 10 10 10 10 9 9 8 8 8 8 8 8 7 7 7 6
6 6 5 5 5 6 6 6 8 9 8 9 9 9 11 13 10 10 10 11 11 11 11 11 10 10 11 10 10 10 10 10 10 10 10 9 9 9 8 8 8 8 8 8 7 7 6 6 6
6 5 6 8 7 6 7 7 9 10 10 11 10 10 10 11 10 11 11 12 12 11 11 10 11 10 10 10 10 10 10 10 9 9 9 9 9 8 8 8 8 8 7 7 7 6 6 6 6
8 6 7 7 6 6 6 7 9 9 9 8 9 9 9 9 10 10 11 12 12 11 11 10 11 10 10 10 9 9 10 9 9 9 9 9 8 8 8 8 8 7 7 7 7 7 6 6 6
8 8 7 5 7 8 7 7 6 8 8 9 8 8 9 8 8 9 11 12 12 11 11 11 10 11 10 9 9 9 9 9 9 8 8 8 8 7 7 7 7 7 7 7 7 7 7 7 7
8 7 7 6 6 7 8 8 9 9 9 8 8 9 9 9 9 10 11 11 11 11 10 10 10 10 9 9 9 9 9 8 8 8 8 7 7 7 7 7 7 7 7 7 7 7 7 7 6
9 8 7 7 6 7 7 8 8 6 6 7 9 9 8 9 9 10 11 11 11 11 10 10 10 10 9 9 8 8 8 8 8 7 7 7 7 7 7 6 7 7 7 7 7 6 6 6 6

GFSSGP_850_temp_168.txt.gz
Temp
15 15 16 17 13 9 12 14 15 18 19 18 19 18 18 19 19 18 19 18 19 19 17 17 17 17 17 17 16 16 16 15 15 15 15 15 15 15 15 15 15 14 14 15 14 14 14 14 14
14 15 15 15 10 11 11 12 16 17 18 19 19 19 18 18 18 18 18 18 18 19 18 17 17 17 17 16 16 16 15 15 15 15 15 15 15 15 15 15 15 14 14 14 14 14 14 14 14
13 14 15 10 7 10 12 14 15 16 19 19 19 18 18 17 16 18 17 18 17 18 18 17 17 16 16 16 16 16 15 15 15 15 15 15 15 15 15 15 15 14 14 14 14 14 14 14 14
13 13 12 9 9 9 12 14 14 14 18 18 18 15 17 16 16 17 17 17 17 17 17 17 16 16 15 16 16 16 15 15 15 15 15 15 15 15 15 15 15 15 15 15 14 14 14 14 14
12 12 8 8 8 9 10 13 13 13 15 17 17 16 16 16 15 16 17 17 16 16 16 15 16 16 15 16 16 15 15 15 15 15 15 15 16 16 15 15 15 15 15 15 15 15 14 14 14
11 9 7 7 8 10 10 15 13 15 15 16 16 15 15 15 14 15 16 16 16 16 15 15 15 15 15 16 15 15 15 15 15 15 16 16 15 15 15 15 15 15 15 15 14 14 14 14 14
8 6 6 7 7 10 12 14 13 13 13 15 15 14 15 14 14 15 15 15 15 15 15 15 14 14 15 15 15 15 15 15 15 16 16 15 15 15 15 15 14 14 14 14 14 14 13 14 14
9 7 7 6 7 9 11 13 13 13 13 14 14 13 13 14 14 14 15 15 15 15 15 15 14 15 15 15 15 15 15 15 16 15 15 15 15 15 15 14 14 14 14 14 14 13 13 13 13
9 6 5 7 8 9 11 9 11 11 12 13 14 13 13 14 14 14 15 14 15 15 14 14 14 14 14 14 14 15 15 16 15 15 15 15 14 14 14 14 13 13 13 13 13 13 13 12 12
8 5 6 7 8 9 9 9 9 10 11 11 12 14 14 13 14 14 15 14 14 14 14 14 14 14 14 14 15 15 16 15 15 15 14 14 14 14 13 13 13 12 13 13 13 12 12 12 11
7 5 7 8 9 10 9 9 10 10 8 11 12 13 13 13 13 14 14 15 15 14 14 14 13 14 14 14 15 15 15 15 15 14 14 13 13 13 13 12 12 12 12 12 12 12 12 11 11
6 7 8 8 9 9 8 9 9 9 9 10 11 12 12 13 13 13 13 14 14 14 14 14 14 14 13 14 14 15 15 14 14 14 13 13 13 13 12 12 12 12 12 11 11 11 11 11 11
5 6 7 8 7 7 8 8 7 8 9 9 10 11 12 13 13 13 13 13 14 14 13 14 14 13 14 14 14 14 14 14 14 14 13 13 12 12 12 12 12 11 12 12 11 12 11 11 11
6 6 6 6 7 7 7 7 7 8 9 9 10 11 11 13 13 13 12 13 13 14 13 13 13 13 13 14 14 14 14 13 13 13 13 12 12 12 11 12 11 11 11 11 11 11 11 11 11
6 5 5 6 7 6 7 6 7 9 9 9 10 10 12 13 13 13 13 13 13 13 13 13 13 13 13 13 13 13 13 13 13 13 13 12 12 11 11 11 12 11 11 11 11 11 11 11 11
5 5 5 7 7 7 7 6 8 9 9 9 10 10 11 13 13 12 12 12 13 13 13 13 12 12 13 13 13 13 13 12 12 12 12 12 11 11 11 11 11 11 11 11 11 11 11 11 11
6 4 5 5 7 6 6 7 8 10 9 9 10 11 11 12 12 11 11 11 12 12 12 12 12 12 12 12 12 12 12 12 12 12 12 11 11 11 11 11 11 11 11 11 11 11 11 11 11
3 3 4 3 6 7 5 5 7 8 9 9 10 10 10 11 12 10 11 11 12 12 11 13 12 12 12 12 11 11 11 12 12 11 11 11 11 11 10 10 11 11 11 10 10 11 11 11 11
5 5 5 6 7 6 5 5 6 7 8 7 8 9 10 11 12 10 11 11 11 11 11 12 11 11 11 11 11 11 11 11 11 11 11 11 11 10 10 10 11 10 10 10 10 10 11 10 10
4 4 5 6 7 6 4 4 6 6 7 7 8 9 10 10 11 10 11 10 11 11 11 11 11 11 11 12 11 11 11 11 11 11 11 11 10 10 10 10 10 10 10 10 10 10 10 10 10
5 5 5 5 6 6 5 5 6 7 7 8 8 9 10 10 10 10 10 10 11 11 10 11 11 11 11 11 11 11 10 10 11 11 11 10 10 10 10 9 10 9 9 9 9 9 9 9 9
5 6 6 5 5 5 5 6 7 7 6 7 8 8 9 9 10 11 10 10 11 11 10 11 11 11 10 11 11 11 11 11 11 10 10 10 10 10 9 9 9 9 9 8 8 8 8 8 8
5 6 6 5 5 5 6 5 7 7 6 7 7 8 9 10 10 11 10 11 11 10 10 10 10 11 10 11 10 10 10 10 10 10 10 10 10 9 9 9 9 8 8 8 8 8 7 7 7
7 6 6 5 5 5 6 6 8 8 9 9 7 8 8 9 10 11 12 12 10 9 10 9 10 10 10 11 11 10 9 10 10 10 10 10 9 9 8 8 8 8 8 7 7 7 7 7 6
6 6 4 2 0 4 6 6 8 10 9 8 8 8 8 9 10 10 11 10 9 9 9 9 9 10 9 11 10 10 9 9 9 10 10 9 9 8 9 8 8 7 7 7 7 7 7 6 6
6 5 6 7 4 7 6 6 8 8 8 9 10 9 9 9 10 11 13 10 10 10 9 9 9 9 9 10 8 10 10 9 9 9 9 9 8 8 7 8 7 7 7 7 7 7 7 6 6
7 5 7 7 5 6 6 6 8 8 7 7 8 9 9 8 9 9 11 10 10 10 9 9 9 10 10 9 9 10 9 9 8 9 8 8 8 8 7 7 7 7 7 7 7 7 7 7 6
6 7 6 4 7 7 5 7 7 8 7 7 7 7 8 8 9 11 9 10 10 10 9 9 9 10 10 9 9 9 9 9 8 8 8 8 7 7 7 7 7 7 7 7 7 7 7 7 6
7 6 6 6 6 7 7 7 8 7 6 6 7 7 7 7 10 12 8 7 9 10 9 9 8 9 9 10 9 9 9 8 8 8 7 7 7 7 7 6 6 7 7 7 7 6 6 6 6
8 7 6 6 5 6 6 8 9 6 6 5 7 8 7 7 8 9 7 7 8 10 9 8 8 8 9 10 9 8 8 8 7 7 7 7 6 6 6 6 7 7 6 7 6 6 6 6 6

GFSSGP_850_temp_171.txt.gz
Temp
15 16 16 17 16 14 15 16 15 18 19 17 17 18 20 18 20 22 19 19 19 19 18 18 17 16 16 17 17 16 16 16 16 15 15 15 15 15 15 15 15 15 15 15 14 14 14 14 14
15 15 16 16 14 15 16 13 16 17 16 18 18 17 18 20 18 18 18 18 18 18 18 18 17 16 16 17 16 16 16 16 15 15 15 15 15 15 15 15 15 15 14 14 14 14 14 14 14
14 15 15 13 11 14 15 14 15 15 17 17 18 17 17 16 16 16 17 18 17 17 17 17 16 16 16 16 16 16 15 15 15 15 15 15 15 15 15 15 15 15 14 14 14 14 14 14 14
14 14 12 12 12 11 12 14 13 14 17 17 17 17 17 16 16 15 16 17 17 17 17 16 15 16 16 16 16 16 15 15 15 15 15 15 15 15 15 15 15 15 15 15 15 15 14 14 14
13 12 11 10 9 10 11 11 12 14 14 16 16 17 16 16 16 15 15 16 17 16 16 15 16 16 16 15 16 16 15 15 15 15 15 15 15 15 15 15 15 15 15 15 15 15 15 14 14
11 9 10 10 9 10 11 12 12 13 14 15 15 14 15 14 14 14 15 15 16 16 15 15 16 16 15 15 16 16 16 15 15 15 15 16 16 16 15 15 15 15 15 14 14 14 14 14 14
9 8 9 7 8 10 12 12 12 12 12 14 13 14 14 15 14 14 15 15 15 15 15 15 15 15 14 14 15 15 15 15 15 15 16 16 16 15 15 15 15 14 14 14 14 14 14 14 13
9 8 7 7 8 10 11 11 11 11 12 13 14 13 14 14 14 15 14 15 14 15 15 15 14 14 14 14 15 15 15 15 15 16 15 15 15 15 15 15 14 14 14 13 13 13 13 13 13
9 8 6 7 7 10 9 9 10 10 11 11 13 12 13 13 13 14 14 14 14 15 15 15 15 14 13 14 14 14 15 15 16 16 15 15 15 14 14 14 14 14 14 13 13 13 13 13 12
7 6 7 7 8 9 9 9 9 9 10 10 11 13 13 13 13 12 14 14 15 14 14 14 14 14 14 14 14 14 15 15 15 15 15 15 14 14 13 13 14 13 13 13 13 13 12 12 12
6 7 6 8 9 9 8 8 9 9 10 10 10 11 12 13 13 13 12 14 14 15 14 14 14 14 14 14 14 14 15 15 15 15 15 14 14 13 13 13 13 13 13 13 12 12 12 12 12
6 6 7 7 8 8 8 8 8 8 9 10 9 9 10 11 12 13 13 12 14 15 14 14 14 14 14 13 14 14 14 15 15 14 14 14 13 13 12 12 12 12 12 12 12 12 12 12 11
5 5 6 7 7 6 7 7 7 8 9 8 9 9 10 10 13 13 13 13 12 14 14 14 14 13 13 13 14 14 14 14 14 14 13 13 13 12 12 12 12 12 12 12 11 12 11 11 11
5 5 5 6 6 6 6 7 7 8 8 8 9 9 9 11 12 12 12 13 12 13 14 14 14 13 13 13 14 14 14 14 14 13 13 13 12 12 12 11 12 11 12 12 11 11 11 11 11
5 5 6 6 6 6 6 6 6 8 9 8 9 9 9 10 12 12 13 13 13 12 13 13 13 13 13 12 13 13 13 13 13 13 13 12 12 12 11 11 11 11 11 11 11 11 11 11 11
5 4 4 6 6 7 7 7 9 9 9 8 9 8 9 10 11 12 12 12 12 12 13 13 13 13 13 12 13 13 13 13 13 13 12 12 12 11 11 11 11 11 11 11 11 11 11 11 11
5 4 5 6 6 7 6 7 8 9 8 8 8 9 9 10 10 11 12 12 12 11 12 12 13 13 12 11 12 12 12 12 12 12 12 12 11 11 11 11 10 10 11 10 11 11 11 10 11
4 5 6 6 6 6 6 6 7 8 7 8 8 8 9 9 10 11 11 11 10 11 12 12 12 12 11 11 11 11 11 11 11 11 11 11 11 11 10 10 10 10 11 11 11 11 11 10 11
5 5 5 6 7 6 6 6 7 7 7 7 7 7 9 10 11 11 10 10 10 10 11 10 11 11 11 11 11 11 11 11 11 11 11 11 11 10 10 10 10 10 10 10 10 10 10 10 11
5 5 5 7 7 7 5 6 7 7 7 7 7 7 7 10 10 10 10 10 10 10 10 10 10 10 11 11 12 12 11 11 10 10 10 10 10 10 10 10 10 10 10 10 10 10 10 10 10
6 5 6 6 7 7 6 6 7 8 7 7 7 7 7 9 11 11 9 10 10 10 10 9 10 10 11 11 11 10 10 10 10 10 10 10 10 10 10 10 9 9 9 9 9 9 9 9 9
5 6 6 6 5 6 6 7 9 8 7 7 7 7 7 8 9 10 10 10 11 10 10 9 9 9 10 11 11 11 12 11 10 10 10 10 9 9 9 9 9 9 9 9 9 9 8 8 8
6 6 5 5 5 5 7 5 7 7 9 8 8 7 7 7 9 10 11 10 10 9 9 9 8 8 9 11 11 11 10 10 10 9 9 9 9 9 9 9 8 8 8 8 8 8 8 8 8
6 6 6 5 5 6 5 6 8 8 8 9 9 8 8 8 8 8 11 10 9 9 8 9 8 8 8 10 10 10 10 10 10 9 9 9 9 8 8 9 8 8 8 8 8 8 7 7 7
5 6 5 4 2 6 6 5 8 8 10 9 9 9 10 10 9 8 9 9 9 9 8 8 7 8 8 10 10 10 9 10 9 9 9 9 8 8 8 8 8 7 8 7 7 7 7 7 7
5 6 6 6 6 7 6 7 9 9 9 9 8 8 9 9 8 8 9 10 9 9 8 8 8 8 8 9 10 9 9 9 9 9 9 8 8 8 8 7 8 7 7 7 7 7 7 7 7
6 5 6 6 5 6 6 7 8 9 8 8 8 7 7 7 7 8 9 9 8 8 8 8 8 8 8 9 9 9 9 10 9 8 8 8 8 7 7 7 7 7 6 7 7 7 7 7 7
6 6 6 6 7 7 6 7 7 8 7 7 7 6 6 7 7 7 9 9 8 9 8 7 7 9 9 8 9 9 10 9 9 8 8 8 8 7 7 6 7 6 6 7 7 7 7 6 6
6 5 5 5 6 7 7 8 8 8 6 4 6 6 6 6 7 7 7 8 10 10 6 7 7 8 8 8 10 10 9 8 8 8 8 7 7 6 6 7 6 6 6 6 7 6 6 6 6
6 6 6 6 6 5 6 8 9 6 6 6 6 5 6 6 6 7 7 6 8 6 6 7 7 8 9 9 10 9 8 8 8 7 7 7 7 6 6 6 6 6 6 6 6 6 6 6 6

GFSSGP_850_temp_174.txt.gz
Temp
16 16 17 17 21 21 23 23 22 23 23 20 20 22 24 22 25 25 18 18 17 16 16 17 17 16 17 17 17 17 17 16 16 16 15 15 15 15 15 15 15 15 15 14 14 14 14 14 14
15 16 16 18 21 21 23 22 21 23 20 19 20 20 21 24 18 18 16 17 16 16 15 16 16 16 16 16 16 16 16 16 16 15 15 15 15 15 15 15 15 15 14 14 14 14 14 14 14
15 15 17 20 20 22 23 20 21 19 19 19 21 19 20 21 17 16 16 17 15 15 15 15 16 16 16 16 16 16 15 16 15 15 15 15 15 15 15 15 15 15 15 14 14 14 14 14 14
15 14 15 19 20 19 19 20 18 19 19 18 18 21 18 15 15 14 16 16 15 15 15 15 16 16 16 16 16 16 15 15 15 15 15 15 15 15 15 15 15 15 15 15 15 15 14 14 14
14 14 18 17 18 17 18 17 16 18 18 18 17 20 19 15 15 14 15 15 15 15 15 15 16 16 16 16 16 15 15 15 15 15 15 15 15 15 15 15 15 15 15 15 15 15 15 14 14
15 14 17 19 18 16 17 17 16 17 17 17 17 18 18 14 14 14 15 15 15 15 15 15 16 16 16 16 15 14 15 15 15 15 15 15 15 16 15 15 15 15 15 15 15 14 14 14 14
14 16 16 16 16 16 17 15 16 16 17 18 15 17 18 15 15 15 15 15 14 15 14 15 15 15 15 15 14 15 15 15 15 15 16 16 16 15 15 15 15 14 14 14 14 14 13 14 14
12 14 13 15 16 15 15 14 13 14 16 13 14 18 18 13 13 14 14 14 14 15 15 14 15 15 15 14 14 14 14 14 15 15 16 16 16 15 15 14 14 14 14 14 14 13 13 13 13
10 14 15 14 13 15 13 14 14 12 12 14 14 14 14 13 12 13 13 14 14 14 15 15 15 14 15 15 14 14 14 14 14 15 15 15 15 15 15 14 14 14 13 13 13 13 13 13 13
12 13 14 13 14 14 13 12 13 12 14 14 13 14 13 13 13 12 14 13 14 14 15 15 15 15 14 14 14 13 14 14 15 15 15 14 14 14 14 14 13 12 13 13 13 12 12 12 11
10 12 11 12 11 11 11 11 12 12 13 14 14 13 13 12 13 13 13 13 13 14 14 15 15 14 14 15 14 14 14 14 15 15 14 14 14 14 13 13 12 12 12 12 12 12 12 12 11
9 10 10 10 10 9 10 11 11 11 12 12 12 12 11 11 11 12 13 13 13 13 14 15 14 14 14 14 14 14 14 14 14 14 14 14 13 13 13 12 12 12 12 12 11 12 12 12 12
8 9 8 8 8 8 9 9 10 10 10 11 11 11 11 11 11 12 12 12 13 12 13 14 15 14 15 14 13 14 14 14 14 14 14 13 13 13 13 12 12 12 12 12 11 12 12 11 11
8 7 8 8 8 8 9 10 10 11 11 11 10 10 10 11 11 11 12 12 13 12 11 11 14 14 15 14 12 14 14 14 14 14 13 13 13 12 12 12 12 12 11 11 11 11 11 11 11
7 7 9 9 9 9 8 10 11 10 11 11 11 11 11 11 10 11 12 12 12 12 11 13 13 14 14 14 12 14 14 14 13 13 13 13 13 12 12 12 11 11 11 11 11 11 11 11 11
8 8 9 10 10 10 8 10 13 12 11 11 11 11 11 10 10 11 11 12 12 12 10 12 12 13 13 13 13 13 14 13 13 13 12 12 12 12 11 11 11 11 11 11 11 11 11 11 11
8 8 10 10 10 10 9 9 12 10 10 11 10 11 11 11 10 10 11 10 11 12 10 11 11 13 13 13 11 12 13 13 12 12 12 12 12 11 11 11 11 11 11 11 11 11 10 10 11
9 9 10 10 11 10 9 9 11 10 11 11 10 10 11 11 10 11 11 11 11 11 10 11 10 10 11 11 11 12 12 12 12 12 11 11 11 11 11 11 11 11 11 11 11 10 11 10 11
8 7 7 8 10 9 10 10 11 12 12 11 11 10 10 11 10 10 10 10 10 10 10 11 10 9 8 9 10 12 12 12 12 11 11 11 10 10 10 10 10 10 11 10 10 10 10 10 10
7 6 6 9 10 9 10 10 11 13 12 12 12 11 10 10 10 10 10 10 9 10 10 10 10 11 10 8 10 12 12 12 11 11 10 10 10 10 10 10 10 10 10 10 10 10 9 10 10
7 7 9 9 10 9 10 11 14 15 14 13 12 11 10 10 10 10 10 10 9 10 10 10 10 10 8 8 10 11 11 11 11 10 10 10 9 9 10 10 10 9 10 10 9 9 9 10 10
5 10 9 8 7 7 8 8 11 14 13 13 13 12 11 10 9 9 10 10 9 11 10 10 9 9 10 7 9 11 12 12 11 10 10 9 9 9 9 9 9 9 9 9 9 9 9 9 9
8 10 8 8 6 6 9 7 12 14 13 13 13 12 11 11 10 10 10 10 9 10 10 9 9 9 11 7 9 10 12 11 11 10 9 9 9 8 8 8 8 8 8 9 8 8 8 8 8
9 8 9 7 6 7 11 10 12 14 12 13 13 11 10 10 10 10 9 9 8 9 8 8 9 8 8 6 9 10 11 11 10 10 9 8 8 8 8 8 8 8 8 9 7 7 8 8 7
8 8 9 9 8 10 11 9 11 14 13 12 11 11 10 9 10 10 9 9 8 8 8 7 8 7 7 6 9 9 10 10 10 10 9 9 8 8 8 8 8 8 7 8 7 7 7 7 7
9 8 7 8 9 10 12 9 13 13 12 11 9 8 8 9 9 9 9 8 8 8 7 7 7 7 7 6 8 9 9 9 9 9 9 8 8 8 8 8 7 7 7 7 6 8 7 7 7
8 7 9 7 10 8 12 12 13 13 12 9 8 6 8 8 9 9 9 7 7 8 7 7 7 8 7 6 7 9 9 9 9 9 8 8 8 7 7 7 7 7 7 7 7 8 7 7 7
9 9 7 8 8 8 11 12 12 12 9 8 6 7 8 8 8 9 8 7 7 7 7 7 7 6 7 6 7 8 9 9 9 9 8 8 7 7 7 7 7 7 7 6 7 7 6 6 6
9 8 6 6 7 8 9 11 13 10 10 7 6 7 6 8 8 8 7 7 7 7 6 6 6 6 6 6 7 8 9 8 8 8 8 8 7 7 6 7 6 7 6 6 7 6 6 6 6
9 9 8 7 8 8 7 9 11 11 11 8 7 5 6 7 8 7 6 7 7 6 6 6 6 5 7 7 7 8 10 9 8 8 8 8 6 6 7 6 6 6 6 6 6 6 5 5 5

GFSSGP_850_temp_177.txt.gz
Temp
17 15 16 18 21 23 24 26 27 25 25 23 23 24 25 24 26 23 17 17 18 18 16 16 17 18 18 17 17 17 16 17 16 16 16 16 15 15 15 15 15 15 15 15 15 14 14 14 14
17 15 17 20 21 23 25 27 24 25 23 22 23 23 24 25 21 21 18 16 17 18 17 15 16 17 17 17 17 16 16 16 16 16 15 15 15 15 15 15 14 14 14 15 14 14 14 14 14
14 16 19 21 22 23 25 23 24 22 21 21 22 22 22 22 19 18 16 17 16 18 17 16 16 16 17 17 16 16 16 16 15 15 15 15 15 15 15 15 15 15 15 14 14 14 14 14 14
14 16 18 20 22 23 23 23 22 21 21 20 21 22 21 17 17 16 15 16 17 18 17 16 16 16 16 16 16 16 15 15 15 15 15 16 15 15 15 15 15 15 15 15 15 15 14 14 14
15 17 20 20 21 23 21 21 20 20 21 21 20 21 22 18 16 17 15 15 16 18 17 16 16 16 16 16 16 16 15 15 15 15 15 15 15 15 15 15 15 15 15 15 15 15 15 15 14
17 17 19 20 22 22 20 20 19 20 20 20 20 20 20 16 15 15 15 15 15 16 16 16 16 16 16 16 16 15 15 15 15 15 15 15 15 16 16 15 15 15 15 15 15 14 14 14 14
17 18 19 19 19 20 20 19 18 19 19 19 18 19 20 17 15 14 15 15 15 15 15 15 16 15 15 16 15 14 14 14 15 15 15 15 15 16 16 15 15 15 14 14 14 14 14 14 14
15 17 17 19 18 18 19 16 17 16 18 17 16 18 20 17 15 14 15 15 15 15 15 15 15 15 15 14 15 14 15 14 14 15 15 15 15 15 15 15 15 14 14 14 13 13 13 13 13
13 16 18 18 17 18 17 16 16 16 15 15 16 17 17 17 15 14 15 15 14 15 15 15 15 15 15 14 15 14 14 14 14 14 15 15 15 14 14 15 14 14 14 13 13 13 13 13 13
14 16 17 17 16 16 16 15 15 15 15 16 16 16 16 15 15 15 14 14 15 14 14 15 15 15 15 15 14 14 14 14 14 14 15 13 13 12 13 14 14 14 13 13 13 13 12 12 11
14 15 15 14 14 13 14 14 14 15 15 15 16 16 16 15 15 14 14 14 14 15 14 14 14 14 14 15 14 14 14 13 12 13 13 11 14 13 13 13 13 12 13 12 12 12 10 10 10
12 14 13 13 12 12 12 12 12 13 14 14 14 14 14 14 14 14 14 14 14 14 14 13 14 14 14 14 14 14 13 13 12 13 13 13 12 13 11 10 11 11 10 10 10 10 10 10 10
11 12 11 11 11 11 11 11 12 12 13 13 13 13 13 13 13 13 13 14 14 14 13 14 12 14 14 14 14 14 13 14 13 13 14 12 12 13 12 11 11 10 11 10 10 10 9 9 9
11 10 10 10 11 11 11 12 12 13 13 13 13 13 13 13 13 13 13 13 14 14 13 13 13 13 14 14 14 14 12 13 12 12 13 13 13 12 12 12 11 12 10 10 9 9 9 9 9
9 9 12 12 12 12 11 11 14 15 13 13 13 13 13 13 13 13 13 13 13 14 14 13 13 13 12 13 13 14 14 12 13 12 12 12 13 12 12 12 12 12 11 9 10 11 10 10 11
11 11 12 14 13 13 10 11 15 14 14 14 14 14 13 13 13 13 13 13 13 13 13 13 12 13 12 11 12 13 14 12 13 13 12 12 12 12 12 12 12 12 11 10 10 10 10 9 9
12 11 13 13 12 13 11 11 14 13 13 13 13 13 13 13 13 13 12 12 12 13 13 12 12 13 13 11 10 12 14 11 12 13 12 11 12 12 12 12 12 11 11 11 11 11 9 10 10
11 11 11 11 13 12 12 12 14 14 14 14 14 14 14 14 13 13 13 12 12 12 12 12 12 12 10 12 12 7 11 9 12 12 12 11 11 11 12 11 11 11 11 11 11 11 11 11 10
10 10 10 10 12 12 12 12 13 14 14 15 15 15 15 14 13 12 12 12 12 12 12 11 11 11 9 10 11 7 9 10 11 12 12 11 11 11 11 11 11 11 11 11 11 11 11 10 10
10 9 9 12 13 12 12 12 13 15 16 16 15 15 14 13 13 12 12 12 12 11 11 11 10 9 10 10 12 7 8 11 11 12 11 11 11 10 10 11 11 11 11 10 10 10 10 10 10
10 9 10 11 12 12 11 11 15 16 16 16 15 14 14 13 13 12 12 11 11 11 10 9 9 9 9 9 8 7 7 6 10 11 11 10 10 10 10 10 10 10 10 10 10 10 10 10 10
8 11 12 11 9 7 9 8 12 14 16 17 15 15 14 13 12 13 11 11 11 11 9 9 9 9 10 8 7 10 6 7 9 11 10 10 9 9 10 10 10 9 9 9 9 9 9 9 9
10 11 10 10 8 7 9 7 13 15 16 16 15 14 13 12 12 12 12 11 11 11 8 8 9 9 9 8 8 8 7 6 7 10 10 9 9 9 9 9 9 9 9 9 9 9 9 9 9
11 10 11 9 8 7 12 11 13 14 15 15 15 13 11 9 9 11 12 11 11 10 8 7 8 8 8 7 7 6 6 6 7 9 9 9 9 9 9 9 8 8 8 8 8 8 8 9 8
11 11 9 10 9 11 14 13 14 15 16 15 13 11 10 8 9 10 12 11 10 9 7 7 8 7 7 6 6 7 6 6 7 9 9 9 9 9 8 8 8 8 8 8 8 8 8 8 8
11 10 7 8 9 10 12 11 14 16 16 13 12 10 8 7 9 10 11 11 10 8 7 7 7 6 6 6 6 7 6 7 8 9 9 9 9 8 8 8 8 7 7 8 8 8 8 8 8
11 8 10 8 10 10 12 14 16 16 13 13 12 9 8 8 9 10 11 10 8 8 7 7 6 6 6 6 6 6 6 8 8 8 8 8 8 8 8 7 7 7 7 7 7 7 7 7 7
10 11 8 9 8 9 12 12 12 13 11 12 11 9 7 7 9 10 10 10 7 6 7 7 6 6 6 6 6 6 6 7 7 7 8 8 8 8 7 7 7 6 7 7 7 7 7 7 7
11 10 7 7 8 8 9 11 14 13 12 10 9 7 5 6 9 10 10 8 6 6 7 6 6 6 6 6 7 7 6 6 7 8 8 7 7 7 7 7 7 6 6 6 7 6 6 6 6
11 11 11 7 9 9 8 10 15 14 11 7 4 5 5 7 8 8 8 6 6 6 6 6 6 5 4 4 6 6 6 6 7 7 8 7 7 7 7 7 6 6 6 6 6 6 6 6 6

GFSSGP_850_temp_183.txt.gz
Temp
17 18 18 18 14 12 15 17 17 17 19 21 22 22 19 18 18 17 17 18 17 17 17 18 18 18 18 18 18 17 17 17 17 16 16 16 15 15 15 15 15 15 15 14 14 14 14 14 14
17 17 18 17 12 13 14 18 17 17 20 21 22 22 20 18 18 16 17 18 17 16 17 17 18 18 18 18 18 17 17 17 16 16 16 16 15 15 15 15 15 15 14 14 15 14 14 14 14
17 16 16 12 11 14 16 17 17 19 20 21 20 20 19 17 17 16 17 18 17 16 16 17 18 18 18 18 18 17 17 17 16 15 15 15 15 15 15 15 14 15 15 15 15 14 14 14 14
16 16 16 12 15 15 18 17 17 17 20 20 20 18 17 16 16 16 17 18 18 17 16 17 17 17 17 17 17 17 17 16 16 15 15 15 15 15 15 15 14 14 15 15 15 15 15 15 15
15 15 11 13 16 17 17 18 18 15 17 18 19 18 18 17 17 17 18 18 17 16 16 17 17 17 17 17 17 17 17 16 15 15 15 15 15 15 15 15 15 15 15 15 15 15 15 15 15
15 15 11 13 15 16 15 17 17 15 16 17 17 17 16 17 17 17 18 18 18 17 17 16 17 17 16 16 16 16 16 15 15 15 15 15 15 15 15 15 15 15 15 15 15 15 15 15 15
13 10 12 15 14 15 16 17 15 15 15 16 16 15 16 16 16 16 17 17 17 17 16 15 16 16 16 16 16 16 15 15 15 15 15 15 15 14 15 16 15 15 15 15 15 15 15 15 14
13 10 14 14 14 15 14 16 16 15 14 16 16 14 15 16 16 16 16 17 17 16 17 17 15 15 15 16 15 15 15 14 14 15 15 15 15 15 15 15 15 15 14 14 14 14 14 14 14
13 9 11 12 13 12 14 12 14 14 15 14 15 16 16 16 16 16 16 16 17 16 15 16 16 15 15 15 15 15 14 14 14 14 15 15 15 15 16 15 15 14 14 14 14 14 14 13 13
11 9 13 13 13 11 12 12 12 12 12 13 13 16 15 15 16 15 16 15 15 15 15 15 16 15 14 14 14 15 14 14 15 14 15 15 15 15 15 14 14 14 14 14 13 13 13 12 12
11 10 11 13 13 12 11 11 12 11 10 12 13 13 14 14 15 14 14 14 14 14 14 15 15 14 15 14 14 14 14 14 15 14 14 15 15 15 15 14 14 14 13 13 13 12 12 11 11
10 11 11 11 11 11 10 11 10 11 11 12 12 12 12 13 13 14 14 14 14 14 14 14 14 14 14 15 14 14 14 14 14 14 14 15 15 15 14 14 13 13 13 12 12 11 10 10 10
9 10 10 11 10 10 10 10 10 11 12 13 13 13 13 13 13 13 13 13 13 13 13 13 14 14 14 14 13 14 14 14 14 14 14 15 15 14 13 13 13 12 12 11 11 11 10 10 10
10 10 10 10 11 11 11 10 11 12 13 13 13 14 14 14 13 13 13 13 13 13 13 13 13 13 14 14 13 13 13 14 14 13 13 15 15 14 13 13 12 12 11 10 10 10 10 10 10
10 8 8 11 12 11 12 9 9 13 12 13 13 13 13 13 13 13 13 13 13 13 13 13 13 13 13 13 14 12 12 13 13 11 11 14 15 14 13 13 11 11 10 10 10 10 10 10 9
9 9 8 11 11 12 11 9 11 12 12 12 12 12 13 13 13 14 14 13 13 13 13 13 13 13 13 13 13 13 11 11 11 10 10 10 12 14 13 12 11 11 10 10 10 10 10 10 10
8 6 8 8 11 10 10 9 10 12 12 11 12 12 12 12 13 14 14 14 14 13 13 13 13 12 13 12 12 12 11 11 12 10 9 9 10 11 12 12 11 10 10 10 10 10 10 10 9
6 6 8 7 9 10 9 9 10 12 11 11 11 11 12 12 14 14 14 14 14 14 13 13 12 12 12 12 12 10 10 11 10 9 8 8 9 9 10 11 11 10 10 10 10 10 9 9 9
8 7 6 8 9 9 9 9 10 11 10 10 11 12 13 14 14 14 14 13 13 13 13 12 12 12 12 11 11 10 10 10 9 9 11 10 8 9 9 10 11 10 10 10 10 10 10 9 9
8 6 6 8 9 9 9 8 9 10 10 11 12 13 14 14 14 13 12 13 12 12 12 12 12 12 11 11 11 10 11 9 8 8 10 12 7 8 9 9 10 11 10 10 10 10 10 10 9
7 7 7 7 9 8 7 7 8 11 11 13 14 14 14 14 12 12 12 12 11 11 11 12 12 12 11 11 10 9 9 8 7 7 8 10 9 7 8 9 10 10 10 10 10 10 10 10 9
4 9 9 8 5 4 7 7 7 9 9 11 13 14 12 11 11 11 11 12 12 12 12 11 11 12 11 11 10 10 9 8 7 7 7 8 11 7 7 8 9 10 10 10 10 10 10 10 10
7 9 8 8 6 2 6 5 5 8 10 10 9 11 12 11 10 10 10 10 9 10 9 9 11 11 11 11 9 9 8 8 7 8 6 9 6 8 6 7 9 10 10 10 10 10 10 10 10
9 8 7 3 2 3 6 5 9 9 11 11 10 11 10 10 10 10 9 9 9 9 9 8 9 11 11 10 9 9 7 8 7 6 6 6 5 8 6 7 8 9 9 9 9 9 9 9 9
8 5 1 2 1 5 8 6 6 9 11 10 9 9 9 8 7 7 7 6 7 8 9 9 9 11 10 9 9 7 7 8 8 7 6 6 7 7 6 7 7 8 9 9 9 9 9 8 9
8 6 2 3 2 6 7 5 7 10 10 10 9 7 8 8 7 6 7 8 7 9 9 8 9 10 9 9 8 7 7 7 7 6 5 6 7 7 5 6 7 7 8 8 8 8 8 8 9
9 5 7 5 5 4 4 7 11 10 10 7 7 7 6 5 5 5 8 8 10 10 9 8 9 9 8 8 7 7 6 6 6 6 5 7 7 5 5 6 7 7 7 8 8 8 8 8 8
9 8 5 3 3 4 4 6 6 8 8 6 5 5 5 4 5 6 8 9 8 8 9 9 9 8 7 7 6 6 6 6 5 5 5 5 6 5 5 6 6 6 7 7 7 8 8 8 8
7 7 6 4 3 2 3 6 10 10 10 5 4 5 4 3 5 6 7 8 8 8 7 7 8 7 6 6 6 5 5 4 4 4 5 5 6 5 5 6 6 7 7 7 7 7 7 7 7
9 8 6 2 4 4 4 7 11 10 10 6 5 5 3 4 5 6 6 7 7 7 7 7 6 6 6 5 5 5 4 4 4 4 4 4 5 5 6 6 6 6 6 6 7 7 6 7 7

GFSSGP_850_temp_186.txt.gz
Temp
17 17 17 18 14 11 14 17 16 16 18 20 19 19 16 17 17 16 16 16 17 17 17 17 17 18 18 18 18 18 18 17 16 16 16 16 16 16 15 15 15 15 15 15 14 15 15 14 14
17 17 17 17 12 13 14 16 17 17 18 20 20 19 18 16 17 17 17 17 17 17 16 16 16 17 17 17 18 18 18 17 15 16 16 16 15 15 15 15 15 15 14 14 14 15 14 14 14
16 17 17 10 9 13 14 16 17 18 18 19 19 18 17 16 16 17 16 17 15 16 17 16 16 17 17 17 17 17 17 17 17 16 16 15 15 15 15 15 15 14 14 14 15 14 14 14 14
16 16 15 12 14 16 16 16 16 16 18 18 18 17 16 16 17 17 17 17 17 17 17 17 16 17 18 17 17 17 16 16 16 16 15 15 15 15 15 15 15 14 14 15 14 14 14 14 15
16 15 10 12 14 16 14 16 16 14 15 16 17 16 16 16 16 16 17 18 17 17 17 16 16 17 17 17 17 16 16 16 16 15 15 15 15 15 15 15 15 15 14 14 14 14 14 15 15
14 13 10 12 14 15 14 15 15 14 15 16 16 15 16 16 15 16 17 17 18 16 17 16 16 16 17 17 17 16 16 15 15 15 15 15 15 15 15 15 15 15 15 15 15 15 15 14 14
11 9 11 13 14 15 13 15 14 13 13 15 15 14 15 15 16 16 16 16 16 17 16 15 15 15 15 16 17 16 16 15 15 15 14 15 15 15 15 15 15 15 15 15 15 14 14 14 14
13 9 13 11 12 14 12 14 14 13 12 15 15 13 15 15 15 16 16 16 16 16 16 15 15 15 15 15 15 16 15 15 15 14 14 14 14 15 15 16 15 15 15 15 14 14 14 13 13
13 8 10 12 12 11 12 10 13 13 12 13 14 15 15 15 14 15 15 16 15 16 16 15 14 15 15 15 15 15 15 15 14 14 15 14 14 15 15 16 16 15 14 14 14 13 13 13 11
10 8 12 12 12 11 11 10 11 11 11 11 13 14 14 14 14 14 14 15 15 15 15 15 15 14 14 15 15 14 14 14 14 14 14 14 14 15 15 15 15 15 14 14 13 13 12 12 11
10 10 10 12 12 11 10 11 11 10 9 12 13 13 13 13 14 14 14 14 14 14 14 14 15 15 15 14 14 15 14 14 14 14 14 14 14 15 15 15 14 14 14 13 13 13 12 11 11
9 10 10 11 11 10 9 10 10 10 12 14 13 12 13 13 14 14 13 13 14 14 14 14 14 15 14 14 14 14 14 14 14 14 14 14 14 15 15 15 14 13 13 12 12 12 12 11 11
9 9 10 11 10 10 10 9 9 11 13 13 13 13 13 13 13 14 13 13 13 13 13 13 13 14 14 14 14 13 13 14 14 14 14 14 14 15 15 15 14 13 12 12 11 11 11 11 11
9 9 9 10 11 10 9 9 10 12 13 13 13 13 13 13 13 13 13 13 13 13 13 13 13 13 13 13 13 13 12 13 14 14 14 14 14 14 15 15 14 13 12 11 11 10 10 10 10
9 8 8 10 10 10 10 8 8 13 12 11 12 12 13 12 13 13 13 13 13 14 13 13 13 13 13 13 13 13 13 12 13 13 12 13 13 12 13 13 14 13 12 11 10 10 9 9 9
8 8 7 10 10 11 11 7 9 12 11 11 11 11 11 12 12 12 13 13 13 14 13 13 13 13 13 12 12 12 13 13 11 12 10 9 11 11 11 11 12 12 11 10 10 10 9 9 9
5 5 7 7 9 9 9 8 9 11 10 10 10 10 11 11 13 14 14 14 14 14 14 13 13 13 13 12 12 12 12 12 10 12 12 9 8 9 10 10 10 10 10 9 9 9 9 9 9
7 6 6 7 8 8 7 7 9 11 10 10 10 11 12 13 14 14 14 14 14 14 14 14 13 13 12 12 12 12 11 11 10 11 11 11 10 10 9 9 9 10 9 9 9 9 9 9 9
8 6 5 7 8 7 7 7 9 10 9 9 10 11 13 13 14 14 13 13 13 14 13 13 13 13 12 12 12 10 9 10 11 10 10 10 11 10 8 8 9 9 9 9 9 9 9 8 8
7 6 4 7 8 8 8 7 9 8 9 10 11 12 14 13 13 12 12 12 13 12 12 12 12 12 12 12 12 11 10 10 10 11 10 9 8 9 8 8 8 8 8 9 9 9 9 8 8
7 6 6 7 7 7 6 5 7 10 10 12 12 11 12 11 11 11 11 11 11 11 11 11 11 11 11 12 11 11 10 9 8 8 8 8 9 8 9 9 8 8 8 8 8 9 9 9 8
4 7 7 7 5 3 6 5 5 7 7 9 10 11 11 11 11 11 11 11 10 11 11 11 12 12 11 11 11 11 11 10 9 8 8 8 7 8 8 9 10 8 8 8 8 9 9 9 9
7 8 7 6 2 1 5 5 5 6 8 9 10 10 11 11 10 10 10 9 9 9 10 10 9 9 11 11 11 11 10 10 10 9 8 7 7 7 8 7 11 7 7 8 8 9 9 9 9
8 7 6 1 -1 4 5 4 6 8 9 9 9 10 11 10 9 8 7 7 6 6 7 8 8 7 9 9 10 11 10 8 8 8 7 6 6 6 7 7 10 7 7 8 8 8 9 9 9
7 4 1 2 0 5 6 4 7 8 8 9 8 10 9 8 7 7 6 6 7 7 7 7 7 7 7 6 9 10 10 9 9 8 7 6 6 7 7 7 10 7 7 7 8 8 8 9 9
8 6 1 2 2 6 7 4 6 8 10 10 10 8 7 7 6 5 6 6 7 7 8 9 8 6 5 7 7 8 9 8 8 8 7 7 7 6 6 8 8 7 6 6 7 7 8 8 8
7 5 6 3 4 4 4 5 8 9 9 8 9 7 6 5 4 4 5 6 8 9 10 9 6 6 7 7 7 9 8 8 8 8 7 6 6 6 5 6 7 6 6 6 6 7 8 7 8
8 7 4 2 2 3 3 4 6 7 8 7 5 5 5 5 7 5 6 7 7 6 7 6 6 6 7 7 8 8 8 8 7 7 6 5 6 5 4 6 7 6 6 6 6 7 7 7 7
6 6 5 3 2 2 4 6 6 8 10 6 4 5 5 4 6 6 6 6 5 6 6 6 6 7 6 6 7 7 6 6 6 6 5 4 4 4 4 5 5 6 5 5 6 7 7 7 7
7 6 5 2 3 2 4 7 11 9 8 6 5 5 5 5 6 6 5 6 5 6 6 5 6 6 6 6 5 6 6 5 5 4 4 4 4 4 5 5 5 5 5 5 6 7 7 7 7

GFSSGP_850_temp_189.txt.gz
Temp
17 17 17 17 13 10 14 16 15 16 17 18 18 17 15 15 16 16 16 17 17 17 17 16 17 17 17 17 17 17 17 17 17 17 16 15 16 16 16 16 15 15 15 15 14 15 15 14 14
17 17 17 16 11 12 13 15 17 16 17 18 18 18 16 15 16 16 16 17 18 17 17 16 16 16 17 17 17 17 17 17 16 16 16 16 16 15 16 15 15 15 14 14 14 14 14 14 14
16 17 17 9 8 12 13 16 15 17 17 18 18 17 16 16 16 16 16 16 16 16 16 16 16 16 17 17 17 17 16 15 15 16 16 16 15 15 15 15 15 15 14 13 13 14 14 14 14
16 17 15 11 14 14 15 14 15 14 17 17 17 16 16 16 16 16 16 17 16 16 17 16 16 16 17 18 17 17 16 15 15 16 16 15 15 15 14 15 14 14 14 14 15 14 14 14 14
16 15 9 11 14 15 14 14 14 14 14 15 15 15 16 15 15 16 16 16 16 16 16 16 17 16 16 17 18 17 16 16 16 15 15 15 15 16 16 15 15 14 14 14 15 14 14 14 14
14 13 9 11 13 14 13 13 14 13 14 15 15 14 16 15 15 16 16 16 16 16 16 16 16 16 16 16 17 17 17 16 16 15 15 15 15 15 15 16 15 14 14 14 14 14 14 14 14
11 8 10 12 13 14 13 13 12 12 12 14 14 13 15 15 15 15 16 16 15 16 16 16 15 15 15 15 16 16 17 16 15 15 15 14 14 15 15 15 15 15 15 15 15 14 14 14 14
13 9 12 11 11 13 11 12 13 12 12 14 14 12 14 15 15 15 15 15 15 16 16 16 14 14 15 14 14 15 15 16 15 15 14 14 15 14 14 15 15 15 15 14 15 14 14 13 13
12 8 10 12 12 12 11 10 12 12 11 12 14 14 14 14 14 15 15 14 15 15 15 15 15 15 14 14 14 14 14 15 15 14 14 14 15 15 14 15 15 15 15 15 14 14 13 13 12
9 8 11 11 11 10 10 10 11 11 11 11 12 13 13 13 13 13 14 15 14 14 15 15 15 15 14 14 14 14 14 14 14 14 14 14 14 15 14 15 15 15 14 14 14 13 13 13 12
9 10 10 11 11 10 10 9 11 10 9 12 13 13 13 13 14 14 14 14 15 14 14 14 15 14 15 14 14 14 14 14 14 14 14 14 14 14 14 15 15 15 14 13 13 13 12 11 11
10 10 10 11 11 10 9 10 9 10 12 14 13 13 13 13 13 13 13 13 14 13 13 14 14 14 14 15 15 14 13 13 14 14 14 14 14 14 14 15 15 15 14 13 12 12 11 10 11
9 9 10 10 10 10 9 9 8 10 14 13 13 13 13 13 12 13 13 13 13 13 13 13 13 13 14 14 15 15 14 13 13 13 13 14 14 15 14 14 14 14 14 13 12 11 11 10 10
8 8 8 10 10 10 9 9 10 14 14 13 12 12 12 12 12 12 12 12 13 13 13 13 13 13 13 13 13 14 14 14 13 13 13 14 14 14 14 14 14 13 13 12 11 11 10 10 10
8 7 7 9 10 9 10 7 7 14 12 11 11 11 11 11 11 12 12 12 12 13 13 13 13 13 13 13 13 13 13 13 13 13 13 13 13 11 11 13 13 12 12 11 10 10 10 10 10
7 7 7 10 9 10 9 7 8 11 10 10 10 11 10 12 12 13 13 12 12 13 13 13 13 13 13 13 12 12 12 12 13 12 12 11 12 11 9 10 11 11 11 10 9 9 9 9 9
4 5 7 7 9 8 9 7 9 11 9 9 10 10 11 12 14 14 14 14 14 13 14 14 13 13 13 13 12 12 12 12 11 12 11 11 10 13 9 9 10 10 10 10 9 9 9 9 8
7 6 6 5 8 7 6 6 8 9 9 9 10 11 12 13 14 14 14 14 14 14 14 14 13 13 13 12 12 12 12 12 11 10 10 10 11 10 9 9 8 9 9 9 9 9 9 9 9
8 6 5 5 7 7 6 6 8 9 8 8 11 12 12 13 13 13 13 12 12 12 13 13 13 13 13 13 12 12 12 12 12 10 10 10 10 10 9 10 10 8 9 9 9 9 9 8 8
7 6 4 6 7 8 7 7 8 7 8 10 11 11 11 12 11 11 11 11 11 11 11 11 11 11 11 11 12 12 12 11 11 10 10 10 10 9 9 9 10 9 8 8 8 8 8 8 8
6 6 6 7 6 6 5 5 6 8 9 11 11 10 10 11 11 12 12 12 12 12 12 11 11 11 11 11 11 11 11 10 10 9 9 8 9 9 9 8 8 8 7 8 8 8 8 8 8
4 6 6 6 4 3 5 4 5 7 6 8 10 10 11 11 12 11 11 11 11 11 11 11 12 12 11 11 11 11 11 11 10 10 9 9 9 8 8 8 7 7 10 8 8 8 8 8 8
7 8 6 6 1 1 4 4 5 6 8 9 9 10 11 11 10 9 10 10 8 7 8 9 9 10 10 10 10 11 11 11 11 9 8 8 7 8 8 7 8 7 7 10 8 7 7 8 8
7 7 5 -0 -1 1 4 4 6 7 9 9 9 10 10 10 10 9 9 6 5 6 6 7 7 6 6 7 8 9 11 11 10 8 7 7 8 7 7 7 6 7 7 8 9 7 7 7 8
7 4 1 2 0 5 4 3 6 8 7 7 8 10 10 10 8 8 7 6 7 7 7 7 8 7 7 6 6 6 7 9 11 11 7 7 7 7 7 7 6 7 7 7 10 7 7 7 8
8 6 1 2 2 4 5 4 6 7 8 10 9 9 9 9 8 7 7 6 6 6 6 6 8 8 7 6 6 6 7 7 10 10 9 7 7 7 6 6 6 6 6 7 7 8 6 7 7
7 4 6 2 4 4 3 4 6 8 9 8 8 9 9 7 6 6 5 5 6 5 5 6 7 8 6 6 6 6 6 7 9 9 8 8 7 7 6 5 5 6 6 7 8 7 6 7 7
7 6 4 2 2 2 3 3 6 7 7 6 5 7 7 6 5 5 5 5 5 5 5 6 5 5 5 5 5 6 7 7 8 8 8 7 7 6 5 5 5 6 7 7 7 6 6 6 6
6 6 4 3 1 1 2 6 5 7 7 6 6 7 6 6 4 5 4 6 5 5 5 5 5 6 6 6 6 6 6 7 8 7 7 6 6 6 4 5 4 5 6 6 6 6 6 6 6
7 6 4 4 3 3 1 6 11 9 7 7 8 7 6 6 6 5 5 6 5 6 5 5 5 5 5 6 5 6 6 6 6 6 5 6 6 4 4 4 4 5 5 5 5 6 6 5 6